N4SRN-13 Weather Reports


time (UTC)temp
C
wind
direction
speed
KPH
gust
KPH
rain 1hr
cm
rain 24hr
cm
rain mn
cm
humidity
%
barometer
mb
20260507070940 9 281 0.0 8.0 0.00 0.48 0.00 88 1005.1
20260507070834 9 281 0.0 8.0 0.00 0.48 0.00 89 1005.1
20260507070735 9 281 0.0 8.0 0.00 0.48 0.00 88 1004.9
20260507070636 9 79 0.0 8.0 0.00 0.48 0.00 88 1004.9
20260507070533 9 82 0.0 8.0 0.00 0.48 0.00 88 1005.1
20260507070433 9 80 1.6 8.0 0.00 0.48 0.00 88 1005.1
20260507070412 9 243 1.6 8.0 0.00 0.48 0.00 88 1005.1
20260507070325 9 291 1.6 8.0 0.00 0.48 0.00 88 1005.1
20260507070255 9 288 1.6 8.0 0.00 0.48 0.00 88 1005.1
20260507070126 9 243 1.6 8.0 0.00 0.48 0.00 88 1005.2
20260507070025 9 243 1.6 8.0 0.00 0.48 0.00 88 1005.1
20260507065925 9 291 1.6 8.0 0.00 0.48 0.00 88 1005.0
20260507065855 9 300 1.6 8.0 0.00 0.48 0.00 88 1004.9
20260507065822 9 280 1.6 8.0 0.00 0.48 0.00 88 1004.9
20260507065752 9 302 1.6 8.0 0.00 0.48 0.00 88 1004.9
20260507065620 9 316 1.6 8.0 0.00 0.48 0.00 88 1004.9
20260507065518 9 56 1.6 8.0 0.00 0.48 0.00 88 1005.1
20260507065419 9 262 1.6 8.0 0.00 0.48 0.00 88 1005.1
20260507065401 9 288 1.6 8.0 0.00 0.48 0.00 88 1005.2
20260507065317 9 64 1.6 8.0 0.00 0.48 0.00 88 1005.2
20260507065249 9 291 1.6 8.0 0.00 0.48 0.00 88 1005.2
20260507065118 9 288 1.6 8.0 0.00 0.48 0.00 88 1005.2
20260507065015 9 283 1.6 9.7 0.00 0.48 0.00 88 1005.1
20260507064913 9 283 1.6 9.7 0.00 0.48 0.00 88 1005.1
20260507064836 9 300 1.6 9.7 0.00 0.48 0.00 88 1004.9
20260507064826 9 278 1.6 9.7 0.00 0.48 0.00 88 1005.0
20260507064637 9 338 1.6 9.7 0.00 0.48 0.00 88 1004.9
20260507064610 9 341 1.6 9.7 0.00 0.48 0.00 88 1004.8
20260507064510 9 39 1.6 9.7 0.00 0.48 0.00 88 1004.8
20260507064408 9 286 1.6 9.7 0.00 0.48 0.00 88 1004.8
20260507064307 9 287 1.6 9.7 0.00 0.48 0.00 88 1004.9
20260507064206 9 83 1.6 9.7 0.00 0.48 0.00 88 1004.9
20260507064137 9 302 1.6 9.7 0.00 0.48 0.00 88 1004.9
20260507064104 9 246 1.6 9.7 0.00 0.48 0.00 88 1004.8
20260507064004 9 280 1.6 8.0 0.00 0.48 0.00 88 1004.7
20260507063903 9 79 1.6 8.0 0.00 0.48 0.00 88 1004.9
20260507063755 9 338 1.6 8.0 0.00 0.48 0.00 88 1004.9
20260507063655 9 305 0.0 8.0 0.00 0.48 0.00 88 1004.9
20260507063637 9 314 0.0 8.0 0.00 0.48 0.00 88 1004.9
20260507063555 9 293 1.6 8.0 0.00 0.48 0.00 88 1005.0
20260507063455 9 316 1.6 8.0 0.00 0.48 0.00 88 1005.1
20260507063356 9 300 1.6 8.0 0.00 0.48 0.00 88 1005.2
20260507063320 10 316 1.6 8.0 0.00 0.48 0.00 88 1005.1
20260507063308 9 316 1.6 8.0 0.00 0.48 0.00 88 1005.1
20260507063137 10 316 1.6 8.0 0.00 0.48 0.00 88 1005.1
20260507063055 9 319 1.6 8.0 0.00 0.48 0.00 88 1005.1
20260507062951 10 278 1.6 8.0 0.00 0.48 0.00 88 1005.1
20260507062931 10 278 1.6 8.0 0.00 0.48 0.00 88 1004.9
20260507062808 10 291 1.6 8.0 0.00 0.48 0.00 88 1004.9
20260507062635 9 291 1.6 8.0 0.00 0.48 0.00 88 1004.9
20260507062549 10 297 1.6 8.0 0.00 0.48 0.00 89 1005.0
20260507062450 10 283 1.6 6.4 0.00 0.48 0.00 89 1005.0
20260507062349 10 274 1.6 6.4 0.00 0.48 0.00 89 1004.8
20260507062249 10 283 1.6 6.4 0.00 0.48 0.00 89 1004.7
20260507062151 10 288 0.0 6.4 0.00 0.48 0.00 89 1004.6
20260507062137 10 291 0.0 6.4 0.00 0.48 0.00 89 1004.6
20260507062048 10 72 0.0 6.4 0.00 0.48 0.00 89 1004.7
20260507061947 10 74 0.0 6.4 0.00 0.48 0.00 89 1004.7
20260507061848 10 284 0.0 6.4 0.00 0.48 0.00 89 1004.6
20260507061748 10 10 0.0 6.4 0.00 0.48 0.00 89 1004.6
20260507061647 10 309 0.0 6.4 0.00 0.48 0.00 89 1004.7
20260507061637 10 277 0.0 4.8 0.00 0.48 0.00 89 1004.7
20260507061547 10 27 0.0 1.6 0.00 0.48 0.00 89 1004.9
20260507061445 10 34 0.0 3.2 0.00 0.48 0.00 89 1005.0
20260507061345 10 34 0.0 4.8 0.00 0.48 0.00 89 1004.9
20260507061244 10 33 0.0 4.8 0.00 0.48 0.00 89 1004.9
20260507061137 10 34 0.0 4.8 0.00 0.48 0.00 89 1004.9
20260507061041 10 34 0.0 4.8 0.00 0.48 0.00 89 1005.0
20260507060939 10 33 0.0 4.8 0.00 0.48 0.00 89 1005.1
20260507060922 10 51 0.0 4.8 0.00 0.48 0.00 89 1005.2
20260507060758 10 276 0.0 4.8 0.00 0.48 0.00 89 1005.2
20260507060637 9 275 0.0 4.8 0.00 0.48 0.00 89 1005.2
20260507060535 9 274 0.0 4.8 0.00 0.48 0.00 89 1005.2
20260507060435 9 251 0.0 4.8 0.00 0.48 0.00 89 1005.2
20260507060335 9 80 0.0 4.8 0.00 0.48 0.00 89 1005.0
20260507060235 9 81 0.0 4.8 0.00 0.48 0.00 89 1004.9
20260507060201 9 278 0.0 3.2 0.00 0.48 0.00 89 1004.9
20260507060148 9 278 0.0 3.2 0.00 0.48 0.00 89 1004.9
20260507055928 9 278 0.0 3.2 0.00 0.48 0.00 89 1005.0
20260507055830 9 302 0.0 1.6 0.00 0.48 0.00 89 1005.0
20260507055801 9 304 0.0 1.6 0.00 0.48 0.00 89 1005.0
20260507055751 9 304 0.0 1.6 0.00 0.48 0.00 89 1004.9
20260507055631 9 304 0.0 1.6 0.00 0.48 0.00 89 1005.0
20260507055607 9 304 0.0 1.6 0.00 0.48 0.00 89 1004.9
20260507055444 9 302 0.0 1.6 0.00 0.48 0.00 89 1004.9
20260507055320 9 319 0.0 1.6 0.00 0.48 0.00 89 1005.2
20260507055315 9 317 0.0 1.6 0.00 0.48 0.00 89 1005.3
20260507055305 9 302 0.0 1.6 0.00 0.48 0.00 89 1005.1
20260507055141 9 319 0.0 1.6 0.00 0.48 0.00 89 1005.2
20260507054924 9 318 0.0 1.6 0.00 0.48 0.00 89 1005.4
20260507054823 9 319 0.0 1.6 0.00 0.48 0.00 89 1005.5
20260507054723 9 319 0.0 1.6 0.00 0.48 0.00 89 1005.5
20260507054655 9 275 0.0 1.6 0.00 0.48 0.00 89 1005.5
20260507054645 9 319 0.0 1.6 0.00 0.48 0.00 89 1005.5
20260507054638 9 317 0.0 1.6 0.00 0.48 0.00 89 1005.5
20260507054419 9 273 0.0 1.6 0.00 0.48 0.00 89 1005.6
20260507054320 9 273 0.0 1.6 0.00 0.48 0.00 89 1005.5
20260507054217 9 273 0.0 1.6 0.00 0.48 0.00 89 1005.5
20260507054111 9 273 0.0 1.6 0.00 0.48 0.00 89 1005.5
20260507054104 9 273 0.0 1.6 0.00 0.48 0.00 89 1005.4
20260507054058 9 273 0.0 1.6 0.00 0.48 0.00 89 1005.3
20260507054045 9 273 0.0 1.6 0.00 0.48 0.00 89 1005.4
20260507053739 9 273 0.0 1.6 0.00 0.48 0.00 89 1005.2
20260507053728 9 273 0.0 1.6 0.00 0.48 0.00 89 1005.3
20260507053604 9 273 0.0 1.6 0.00 0.48 0.00 89 1005.2
20260507053510 9 273 0.0 1.6 0.00 0.48 0.00 89 1005.2
20260507053408 9 39 0.0 1.6 0.00 0.48 0.00 89 1005.2
20260507053306 9 39 0.0 1.6 0.00 0.48 0.00 89 1005.2
20260507053231 9 302 0.0 1.6 0.00 0.48 0.00 88 1005.2
20260507053223 9 302 0.0 1.6 0.00 0.48 0.00 88 1005.2
20260507053058 9 302 0.0 1.6 0.00 0.48 0.00 88 1005.2
20260507053003 9 303 0.0 3.2 0.00 0.48 0.00 88 1005.3
20260507052901 9 303 0.0 3.2 0.00 0.48 0.00 88 1005.3
20260507052801 9 294 0.0 3.2 0.00 0.48 0.00 88 1005.2
20260507052659 9 293 0.0 3.2 0.00 0.48 0.00 88 1005.2
20260507052600 9 293 0.0 3.2 0.00 0.48 0.00 88 1005.3
20260507052553 9 294 0.0 3.2 0.00 0.48 0.00 88 1005.3
20260507052458 10 294 0.0 3.2 0.00 0.48 0.00 88 1005.2
20260507052425 10 294 0.0 3.2 0.00 0.48 0.00 88 1005.3
20260507052421 10 293 0.0 3.2 0.00 0.48 0.00 88 1005.3
20260507052411 10 294 0.0 3.2 0.00 0.48 0.00 88 1005.3
20260507052211 10 294 0.0 3.2 0.00 0.48 0.00 88 1005.3
20260507052156 10 294 0.0 3.2 0.00 0.48 0.00 88 1005.3
20260507051950 10 276 0.0 4.8 0.00 0.48 0.00 88 1005.4
20260507051850 10 273 0.0 6.4 0.00 0.48 0.00 88 1005.4
20260507051758 10 297 0.0 6.4 0.00 0.48 0.00 87 1005.5
20260507051705 10 300 0.0 6.4 0.00 0.48 0.00 88 1005.5
20260507051648 10 300 0.0 6.4 0.00 0.48 0.00 87 1005.5
20260507051449 10 299 0.0 6.4 0.00 0.48 0.00 87 1005.4
20260507051348 10 300 0.0 6.4 0.00 0.48 0.00 87 1005.4
20260507051247 10 297 0.0 6.4 0.00 0.48 0.00 87 1005.4
20260507051146 10 300 0.0 6.4 0.00 0.48 0.00 87 1005.3
20260507051035 10 300 0.0 6.4 0.00 0.48 0.00 87 1005.3
20260507050946 10 300 0.0 6.4 0.00 0.48 0.00 87 1005.3
20260507050846 10 114 0.0 3.2 0.00 0.48 0.00 87 1005.3
20260507050746 10 115 0.0 3.2 0.00 0.48 0.00 87 1005.4
20260507050644 10 91 0.0 3.2 0.00 0.48 0.00 87 1005.4
20260507050528 10 302 0.0 3.2 0.00 0.48 0.00 87 1005.4
20260507050504 10 297 0.0 4.8 0.00 0.48 0.00 87 1005.4
20260507050455 10 297 0.0 4.8 0.00 0.48 0.00 87 1005.4
20260507050305 10 297 0.0 4.8 0.00 0.48 0.00 87 1005.5
20260507050256 10 297 0.0 4.8 0.00 0.48 0.00 87 1005.5
20260507050039 10 293 0.0 4.8 0.00 0.48 0.00 87 1005.5
20260507050026 10 294 1.6 4.8 0.00 0.48 0.00 87 1005.5
20260507045939 10 293 1.6 4.8 0.00 0.48 0.00 87 1005.5
20260507045839 10 288 1.6 8.0 0.00 0.48 0.00 87 1005.3
20260507045735 10 288 1.6 8.0 0.00 0.48 0.00 87 1005.3
20260507045633 10 288 1.6 11.3 0.00 0.48 0.00 87 1005.3
20260507045534 10 55 1.6 11.3 0.00 0.48 0.00 87 1005.2
20260507045525 10 56 1.6 11.3 0.00 0.48 0.00 87 1005.1
20260507045433 10 308 1.6 11.3 0.00 0.48 0.00 87 1005.1
20260507045334 10 310 1.6 11.3 0.00 0.48 0.00 87 1005.1
20260507045229 10 323 1.6 11.3 0.00 0.48 0.00 87 1005.1
20260507045126 10 281 1.6 11.3 0.00 0.48 0.00 87 1005.2
20260507045029 10 281 1.6 11.3 0.00 0.48 0.00 87 1005.2
20260507044928 10 274 1.6 11.3 0.00 0.48 0.00 87 1005.1
20260507044829 10 302 1.6 11.3 0.00 0.48 0.00 87 1005.0
20260507044723 10 354 1.6 11.3 0.00 0.48 0.00 87 1005.1
20260507044622 10 27 1.6 8.0 0.00 0.48 0.00 87 1005.1
20260507044520 10 274 1.6 8.0 0.00 0.48 0.00 87 1005.0
20260507044421 10 42 1.6 8.0 0.00 0.48 0.00 87 1005.0
20260507044322 10 38 1.6 8.0 0.00 0.48 0.00 86 1005.1
20260507044218 10 283 1.6 8.0 0.00 0.48 0.00 87 1005.1
20260507044116 10 281 1.6 8.0 0.00 0.48 0.00 87 1005.1
20260507044025 10 71 1.6 8.0 0.00 0.48 0.00 86 1005.2
20260507044015 10 22 1.6 8.0 0.00 0.48 0.00 86 1005.2
20260507043917 10 288 1.6 8.0 0.00 0.48 0.00 86 1005.2
20260507043835 10 284 1.6 8.0 0.00 0.48 0.00 87 1005.3
20260507043826 10 297 1.6 8.0 0.00 0.48 0.00 86 1005.2
20260507043610 10 285 1.6 8.0 0.00 0.48 0.00 87 1005.2
20260507043526 10 53 1.6 8.0 0.00 0.48 0.00 87 1005.2
20260507043509 10 47 0.0 8.0 0.00 0.48 0.00 87 1005.2
20260507043411 10 141 0.0 3.2 0.00 0.48 0.00 87 1005.2
20260507043308 10 288 0.0 3.2 0.00 0.48 0.00 87 1005.2
20260507043207 10 288 0.0 3.2 0.00 0.48 0.00 87 1005.3
20260507043104 10 288 0.0 3.2 0.00 0.48 0.00 87 1005.3
20260507043027 10 263 0.0 3.2 0.00 0.48 0.00 87 1005.4
20260507043003 10 267 0.0 3.2 0.00 0.48 0.00 87 1005.4
20260507042931 10 239 0.0 3.2 0.00 0.48 0.00 88 1005.4
20260507042921 10 267 0.0 3.2 0.00 0.48 0.00 87 1005.4
20260507042705 10 321 0.0 3.2 0.00 0.48 0.00 88 1005.4
20260507042601 10 315 0.0 3.2 0.00 0.48 0.00 88 1005.4
20260507042534 10 53 0.0 3.2 0.00 0.48 0.00 88 1005.4
20260507042527 10 25 0.0 3.2 0.00 0.48 0.00 88 1005.5
20260507042517 10 25 0.0 3.2 0.00 0.48 0.00 88 1005.5
20260507042258 10 53 0.0 3.2 0.00 0.48 0.00 88 1005.4
20260507042151 10 49 0.0 3.2 0.00 0.48 0.00 88 1005.5
20260507042052 10 8 0.0 3.2 0.00 0.48 0.00 89 1005.4
20260507042021 10 271 0.0 3.2 0.00 0.48 0.00 89 1005.5
20260507041952 10 321 0.0 3.2 0.00 0.48 0.00 89 1005.5
20260507041909 10 321 0.0 3.2 0.00 0.48 0.00 89 1005.5
20260507041855 10 271 1.6 3.2 0.00 0.48 0.00 89 1005.5
20260507041647 10 26 1.6 4.8 0.00 0.48 0.00 89 1005.4
20260507041631 10 277 1.6 4.8 0.00 0.48 0.00 89 1005.4
20260507041445 10 274 1.6 4.8 0.00 0.48 0.00 89 1005.5
20260507041345 10 267 0.0 4.8 0.00 0.48 0.00 89 1005.4
20260507041324 10 268 1.6 12.9 0.00 0.48 0.00 90 1005.4
20260507041320 10 268 1.6 12.9 0.00 0.48 0.00 90 1005.4
20260507041308 10 277 1.6 12.9 0.00 0.48 0.00 89 1005.4
20260507041254 10 61 1.6 12.9 0.00 0.48 0.00 90 1005.3
20260507041127 10 269 1.6 12.9 0.00 0.48 0.00 90 1005.4
20260507040853 10 131 1.6 12.9 0.00 0.48 0.00 90 1005.4
20260507040632 10 288 1.6 12.9 0.00 0.48 0.00 90 1005.3
20260507040604 10 288 1.6 12.9 0.00 0.48 0.00 90 1005.2
20260507040544 10 288 1.6 12.9 0.00 0.48 0.00 90 1005.2
20260507040332 10 285 1.6 12.9 0.00 0.48 0.00 90 1005.2
20260507040232 10 101 0.0 6.4 0.00 0.48 0.00 90 1005.2
20260507040214 10 263 0.0 6.4 0.03 0.48 0.00 91 1005.1
20260507040041 11 297 0.0 12.9 0.03 0.48 0.00 91 1005.1
20260507035827 11 302 0.0 12.9 0.03 0.48 0.48 91 1005.0
20260507035727 11 302 0.0 12.9 0.03 0.48 0.48 91 1005.0
20260507035654 11 282 1.6 12.9 0.03 0.48 0.48 91 1005.0
20260507035645 11 283 1.6 12.9 0.03 0.48 0.48 91 1005.0
20260507035514 11 282 1.6 12.9 0.03 0.48 0.48 91 1005.0
20260507035427 11 36 1.6 12.9 0.03 0.48 0.48 91 1004.9
20260507035327 11 291 1.6 12.9 0.05 0.48 0.48 91 1004.9
20260507035315 11 291 1.6 12.9 0.05 0.48 0.48 91 1004.9
20260507035311 11 30 1.6 6.4 0.08 0.48 0.48 91 1004.9
20260507035300 11 291 1.6 12.9 0.05 0.48 0.48 91 1004.9
20260507035014 11 30 1.6 6.4 0.08 0.48 0.48 91 1004.9
20260507034928 11 271 1.6 6.4 0.08 0.48 0.48 91 1004.9
20260507034829 11 18 1.6 8.0 0.08 0.48 0.48 91 1004.9
20260507034727 11 323 1.6 8.0 0.08 0.48 0.48 91 1005.0
20260507034652 11 277 1.6 11.3 0.08 0.48 0.48 91 1004.9
20260507034643 11 285 1.6 9.7 0.08 0.48 0.48 91 1004.9
20260507034516 11 276 1.6 11.3 0.08 0.48 0.48 91 1004.9
20260507034427 11 276 1.6 11.3 0.08 0.48 0.48 91 1004.9
20260507034328 11 288 1.6 11.3 0.08 0.48 0.48 91 1004.9
20260507034250 11 68 3.2 11.3 0.08 0.48 0.48 91 1005.1
20260507034241 11 294 3.2 11.3 0.08 0.48 0.48 91 1005.0
20260507034026 11 309 3.2 11.3 0.08 0.48 0.48 91 1005.1
20260507034016 11 309 3.2 11.3 0.08 0.48 0.48 91 1005.1
20260507034011 11 299 1.6 8.0 0.08 0.48 0.48 91 1004.9
20260507033958 11 299 3.2 11.3 0.08 0.48 0.48 91 1005.0
20260507033834 11 270 3.2 11.3 0.08 0.48 0.48 91 1005.0
20260507033819 11 41 1.6 11.3 0.08 0.48 0.48 91 1005.0
20260507033702 11 46 1.6 8.0 0.08 0.48 0.48 91 1004.7
20260507033649 11 307 1.6 11.3 0.08 0.48 0.48 91 1004.9
20260507033634 11 281 1.6 8.0 0.08 0.48 0.48 91 1004.9
20260507033625 11 276 1.6 8.0 0.08 0.48 0.48 91 1004.9
20260507033014 11 257 1.6 6.4 0.08 0.48 0.48 91 1004.7
20260507032925 11 285 1.6 9.7 0.08 0.48 0.48 91 1004.7
20260507032824 11 285 1.6 11.3 0.08 0.48 0.48 92 1004.7
20260507032724 11 243 1.6 11.3 0.08 0.48 0.48 91 1004.7
20260507032623 11 243 1.6 11.3 0.08 0.48 0.48 91 1004.8
20260507032514 11 283 1.6 11.3 0.08 0.48 0.48 91 1004.8
20260507032424 11 284 1.6 11.3 0.08 0.48 0.48 91 1004.8
20260507032323 11 283 1.6 11.3 0.08 0.48 0.48 91 1004.8
20260507032224 12 91 1.6 11.3 0.08 0.48 0.48 91 1004.7
20260507032123 12 285 1.6 11.3 0.08 0.48 0.48 91 1004.7
20260507032024 12 242 1.6 11.3 0.08 0.48 0.48 91 1004.7
20260507032014 12 273 1.6 11.3 0.08 0.48 0.48 91 1004.7
20260507031923 12 294 1.6 11.3 0.08 0.48 0.48 91 1004.7
20260507031850 12 50 1.6 6.4 0.08 0.48 0.48 91 1004.7
20260507031840 12 46 1.6 6.4 0.08 0.48 0.48 91 1004.7
20260507031621 12 297 1.6 8.0 0.08 0.48 0.48 91 1004.7
20260507031524 12 50 3.2 9.7 0.08 0.48 0.48 91 1004.7
20260507031515 12 25 3.2 9.7 0.08 0.48 0.48 91 1004.7
20260507031421 12 297 1.6 9.7 0.08 0.48 0.48 91 1004.7
20260507031321 12 58 1.6 9.7 0.08 0.48 0.48 91 1004.7
20260507031221 12 314 1.6 9.7 0.08 0.48 0.48 91 1004.6
20260507031122 12 42 1.6 9.7 0.08 0.48 0.48 91 1004.5
20260507031022 12 351 1.6 9.7 0.08 0.48 0.48 91 1004.5
20260507031014 12 352 1.6 9.7 0.08 0.48 0.48 91 1004.5
20260507030920 12 297 1.6 9.7 0.08 0.48 0.48 91 1004.4
20260507030821 12 269 1.6 9.7 0.08 0.48 0.48 91 1004.4
20260507030749 12 57 1.6 9.7 0.08 0.48 0.48 91 1004.4
20260507030737 12 308 1.6 9.7 0.08 0.48 0.48 91 1004.4
20260507030516 12 299 1.6 8.0 0.08 0.48 0.48 91 1004.3
20260507030422 13 264 1.6 8.0 0.08 0.48 0.48 91 1004.3
20260507030348 13 302 1.6 8.0 0.08 0.48 0.48 91 1004.3
20260507030337 13 264 1.6 8.0 0.08 0.48 0.48 91 1004.3
20260507030123 13 88 1.6 8.0 0.05 0.46 0.48 91 1004.4
20260507030024 13 303 1.6 8.0 0.05 0.46 0.46 90 1004.3
20260507030016 13 304 1.6 8.0 0.05 0.46 0.46 90 1004.3
20260507025921 13 291 1.6 6.4 0.05 0.46 0.46 90 1004.3
20260507025824 13 285 1.6 6.4 0.05 0.46 0.46 90 1004.4
20260507025717 13 287 1.6 6.4 0.05 0.46 0.46 90 1004.3
20260507025649 13 72 1.6 11.3 0.05 0.46 0.46 90 1004.4
20260507025639 13 85 1.6 11.3 0.05 0.46 0.46 90 1004.4
20260507025518 13 72 1.6 11.3 0.05 0.46 0.46 90 1004.4
20260507025416 13 314 1.6 11.3 0.05 0.46 0.46 90 1004.4
20260507025315 13 293 1.6 11.3 0.03 0.43 0.43 90 1004.5
20260507025251 13 33 1.6 12.9 0.00 0.41 0.43 90 1004.4
20260507025243 13 38 1.6 12.9 0.00 0.41 0.41 90 1004.5
20260507025239 13 291 1.6 12.9 0.00 0.41 0.41 91 1004.5
20260507025229 13 263 1.6 12.9 0.03 0.43 0.43 90 1004.5
20260507025212 13 67 1.6 12.9 0.03 0.43 0.43 90 1004.4
20260507025051 13 33 1.6 12.9 0.00 0.41 0.43 90 1004.4
20260507024916 13 316 1.6 12.9 0.00 0.41 0.41 90 1004.5
20260507024754 13 344 1.6 12.9 0.00 0.41 0.41 90 1004.6
20260507024622 13 233 1.6 12.9 0.00 0.41 0.41 91 1004.5
20260507024439 13 264 1.6 12.9 0.00 0.41 0.41 91 1004.5
20260507024430 13 66 1.6 12.9 0.00 0.41 0.41 91 1004.5
20260507024244 14 135 0.0 8.0 0.00 0.41 0.41 92 1004.3
20260507024234 14 272 0.0 12.9 0.00 0.41 0.41 92 1004.5
20260507024017 14 30 0.0 8.0 0.00 0.41 0.41 92 1004.3
20260507023917 14 340 1.6 9.7 0.00 0.41 0.41 92 1004.4
20260507023811 14 91 1.6 9.7 0.00 0.41 0.41 92 1004.3
20260507023740 14 288 0.0 9.7 0.00 0.41 0.41 92 1004.4
20260507023729 14 46 1.6 9.7 0.00 0.41 0.41 92 1004.3
20260507023511 14 308 1.6 9.7 0.00 0.41 0.41 92 1004.3
20260507023412 14 308 1.6 9.7 0.00 0.41 0.41 92 1004.3
20260507023313 14 307 1.6 9.7 0.00 0.41 0.41 92 1004.2
20260507023236 14 290 1.6 9.7 0.00 0.41 0.41 92 1004.2
20260507023227 14 308 1.6 9.7 0.00 0.41 0.41 92 1004.2
20260507023018 14 300 0.0 9.7 0.00 0.41 0.41 92 1004.1
20260507023012 14 299 0.0 9.7 0.00 0.41 0.41 92 1004.1
20260507022921 14 46 0.0 6.4 0.00 0.41 0.41 93 1004.1
20260507022912 14 355 0.0 6.4 0.00 0.41 0.41 93 1004.1
20260507022902 14 12 0.0 6.4 0.00 0.41 0.41 93 1004.1
20260507022855 14 345 0.0 6.4 0.00 0.41 0.41 93 1004.1
20260507022845 14 44 0.0 6.4 0.00 0.41 0.41 93 1004.1
20260507022603 14 345 0.0 6.4 0.00 0.41 0.41 93 1004.0
20260507022552 14 294 0.0 6.4 0.00 0.41 0.41 93 1004.1
20260507022545 14 293 0.0 6.4 0.00 0.41 0.41 93 1004.1
20260507022245 14 255 1.6 6.4 0.00 0.41 0.41 93 1003.9
20260507022212 14 346 1.6 6.4 0.00 0.41 0.41 93 1004.0
20260507022134 14 340 1.6 6.4 0.00 0.41 0.41 93 1003.9
20260507022013 14 255 1.6 6.4 0.00 0.41 0.41 93 1003.9
20260507021907 14 269 1.6 6.4 0.00 0.41 0.41 93 1003.8
20260507021808 14 277 1.6 6.4 0.00 0.41 0.41 93 1003.8
20260507021707 14 277 1.6 4.8 0.00 0.41 0.41 94 1003.8
20260507021608 14 277 1.6 4.8 0.00 0.41 0.41 94 1003.8
20260507021539 14 300 1.6 4.8 0.00 0.41 0.41 94 1003.8
20260507021529 14 299 1.6 4.8 0.00 0.41 0.41 94 1003.8
20260507021522 14 297 1.6 4.8 0.00 0.41 0.41 94 1003.8
20260507021307 14 60 1.6 4.8 0.00 0.41 0.41 94 1003.7
20260507021207 15 46 0.0 4.8 0.00 0.41 0.41 94 1003.8
20260507021109 15 57 0.0 4.8 0.00 0.41 0.41 94 1003.8
20260507021007 15 120 0.0 4.8 0.00 0.41 0.41 94 1003.8
20260507020908 15 108 0.0 4.8 0.00 0.41 0.41 94 1003.9
20260507020808 15 302 0.0 3.2 0.00 0.41 0.41 94 1003.9
20260507020708 15 322 0.0 3.2 0.00 0.41 0.41 94 1003.8
20260507020607 15 291 1.6 6.4 0.00 0.41 0.41 94 1003.8
20260507020516 15 297 1.6 9.7 0.00 0.41 0.41 94 1003.8
20260507020509 15 304 1.6 9.7 0.00 0.41 0.41 94 1003.8
20260507020433 15 240 1.6 9.7 0.00 0.41 0.41 94 1003.7
20260507020423 15 240 1.6 9.7 0.00 0.41 0.41 94 1003.7
20260507020208 15 126 1.6 9.7 0.00 0.41 0.41 94 1003.7
20260507020200 15 123 1.6 9.7 0.00 0.41 0.41 94 1003.6
20260507020154 15 123 1.6 9.7 0.00 0.41 0.41 94 1003.6
20260507020142 15 126 1.6 9.7 0.00 0.41 0.41 94 1003.7
20260507020121 15 124 1.6 9.7 0.00 0.41 0.41 94 1003.7
20260507015707 15 134 1.6 9.7 0.00 0.41 0.41 94 1003.6
20260507015630 15 150 1.6 9.7 0.00 0.41 0.41 94 1003.6
20260507015507 15 120 1.6 6.4 0.00 0.41 0.41 94 1003.6
20260507015409 15 201 1.6 6.4 0.00 0.41 0.41 94 1003.6
20260507015306 15 142 0.0 4.8 0.00 0.41 0.41 94 1003.6
20260507015203 15 156 0.0 3.2 0.00 0.41 0.41 94 1003.6
20260507015113 15 142 1.6 3.2 0.00 0.41 0.41 94 1003.5
20260507015107 15 186 0.0 3.2 0.00 0.41 0.41 94 1003.6
20260507015046 15 186 1.6 3.2 0.00 0.41 0.41 94 1003.6
20260507014919 15 184 1.6 3.2 0.00 0.41 0.41 94 1003.5
20260507014905 15 132 1.6 3.2 0.00 0.41 0.41 94 1003.5
20260507014848 15 132 1.6 3.2 0.00 0.41 0.41 94 1003.5
20260507014504 15 117 1.6 3.2 0.00 0.41 0.41 94 1003.5
20260507014455 15 114 1.6 8.0 0.00 0.41 0.41 94 1003.4
20260507014450 15 178 1.6 8.0 0.00 0.41 0.41 94 1003.3
20260507014436 15 138 0.0 3.2 0.00 0.41 0.41 94 1003.4
20260507014130 15 125 1.6 8.0 0.00 0.41 0.41 94 1003.4
20260507014003 15 169 1.6 8.0 0.00 0.41 0.41 94 1003.3
20260507013931 15 276 1.6 8.0 0.00 0.41 0.41 94 1003.4
20260507013920 15 276 1.6 8.0 0.00 0.41 0.41 94 1003.4
20260507013730 15 282 1.6 8.0 0.00 0.41 0.41 94 1003.3
20260507013718 15 276 1.6 8.0 0.00 0.41 0.41 94 1003.4
20260507013515 15 167 1.6 8.0 0.00 0.41 0.41 94 1003.3
20260507013506 15 165 1.6 8.0 0.00 0.41 0.41 94 1003.3
20260507013401 15 156 1.6 8.0 0.00 0.41 0.41 94 1003.4
20260507013302 15 145 1.6 8.0 0.00 0.41 0.41 94 1003.4
20260507013202 15 193 1.6 3.2 0.00 0.41 0.41 94 1003.4
20260507013100 15 145 0.0 3.2 0.00 0.41 0.41 94 1003.4
20260507013014 15 139 0.0 3.2 0.00 0.41 0.41 94 1003.4
20260507013000 15 142 0.0 3.2 0.00 0.41 0.41 94 1003.4
20260507012859 15 159 0.0 3.2 0.00 0.41 0.41 94 1003.4
20260507012756 15 145 0.0 3.2 0.00 0.41 0.41 94 1003.4
20260507012656 15 122 0.0 3.2 0.00 0.41 0.41 94 1003.4
20260507012554 15 240 0.0 3.2 0.00 0.41 0.41 94 1003.3
20260507012525 15 192 0.0 4.8 0.00 0.41 0.41 94 1003.4
20260507012518 15 240 0.0 3.2 0.00 0.41 0.41 94 1003.4
20260507012509 15 240 0.0 3.2 0.00 0.41 0.41 94 1003.4
20260507012254 15 191 0.0 4.8 0.00 0.41 0.41 94 1003.4
20260507012155 15 191 0.0 6.4 0.00 0.41 0.41 94 1003.3
20260507012051 15 274 0.0 6.4 0.00 0.41 0.41 94 1003.4
20260507012027 15 276 0.0 6.4 0.00 0.41 0.41 94 1003.4
20260507012019 15 274 0.0 6.4 0.00 0.41 0.41 94 1003.4
20260507012011 15 274 0.0 6.4 0.00 0.41 0.41 94 1003.4
20260507011753 15 188 0.0 6.4 0.00 0.41 0.41 94 1003.4
20260507011652 15 188 0.0 6.4 0.00 0.41 0.41 94 1003.4
20260507011623 15 188 0.0 6.4 0.00 0.41 0.41 94 1003.4
20260507011612 15 188 0.0 6.4 0.00 0.41 0.41 94 1003.4
20260507011600 15 189 0.0 6.4 0.00 0.41 0.41 94 1003.4
20260507011423 15 153 0.0 6.4 0.00 0.41 0.41 94 1003.4
20260507011246 15 201 0.0 6.4 0.00 0.41 0.41 94 1003.4
20260507011229 15 309 1.6 8.0 0.00 0.41 0.41 94 1003.4
20260507011216 15 280 1.6 4.8 0.00 0.41 0.41 94 1003.4
20260507011201 15 191 1.6 8.0 0.00 0.41 0.41 94 1003.4
20260507011040 15 188 1.6 8.0 0.00 0.41 0.41 94 1003.4
20260507010758 15 150 1.6 8.0 0.00 0.41 0.41 94 1003.4
20260507010739 15 186 1.6 8.0 0.00 0.41 0.41 94 1003.4
20260507010442 15 145 1.6 8.0 0.00 0.41 0.41 94 1003.3
20260507010341 15 128 1.6 8.0 0.00 0.41 0.41 94 1003.4
20260507010241 15 233 1.6 8.0 0.00 0.41 0.41 94 1003.4
20260507010141 15 270 1.6 8.0 0.00 0.41 0.41 94 1003.4
20260507010045 15 259 1.6 4.8 0.00 0.41 0.41 94 1003.4
20260507010035 15 153 1.6 6.4 0.00 0.41 0.41 94 1003.3
20260507010031 15 248 1.6 6.4 0.00 0.41 0.41 94 1003.4
20260507010022 15 299 0.0 4.8 0.00 0.41 0.41 94 1003.4
20260507010010 15 161 0.0 3.2 0.00 0.41 0.41 94 1003.4
20260507005847 15 150 0.0 3.2 0.00 0.41 0.41 94 1003.4
20260507005831 15 252 0.0 4.8 0.00 0.41 0.41 94 1003.4
20260507005656 15 143 1.6 6.4 0.00 0.41 0.41 94 1003.4
20260507005334 15 122 1.6 6.4 0.00 0.41 0.41 94 1003.4
20260507005232 15 122 1.6 6.4 0.00 0.41 0.41 94 1003.4
20260507005156 15 122 1.6 6.4 0.00 0.41 0.41 94 1003.4
20260507005147 15 122 1.6 6.4 0.00 0.41 0.41 94 1003.4
20260507005009 15 122 1.6 6.4 0.00 0.41 0.41 94 1003.4
20260507004931 15 122 1.6 6.4 0.00 0.41 0.41 94 1003.4
20260507004832 15 120 1.6 6.4 0.00 0.41 0.41 94 1003.3
20260507004730 15 173 1.6 6.4 0.00 0.41 0.41 94 1003.4
20260507004632 15 162 1.6 6.4 0.00 0.41 0.41 94 1003.3
20260507004528 15 212 1.6 6.4 0.00 0.41 0.41 94 1003.4
20260507004510 15 150 1.6 6.4 0.00 0.41 0.41 94 1003.4
20260507004426 15 291 1.6 6.4 0.00 0.41 0.41 94 1003.4
20260507004327 15 200 1.6 6.4 0.00 0.41 0.41 94 1003.3
20260507004227 15 142 1.6 6.4 0.00 0.41 0.41 94 1003.3
20260507004127 15 131 1.6 6.4 0.00 0.41 0.41 94 1003.3
20260507004024 15 179 1.6 6.4 0.00 0.41 0.41 94 1003.3
20260507004009 15 180 1.6 6.4 0.00 0.41 0.41 94 1003.3
20260507003922 15 175 1.6 6.4 0.00 0.41 0.41 94 1003.3
20260507003817 15 156 1.6 6.4 0.00 0.41 0.41 94 1003.2
20260507003718 15 131 1.6 6.4 0.00 0.41 0.41 94 1003.2
20260507003711 15 167 1.6 6.4 0.00 0.41 0.41 94 1003.2
20260507003704 15 167 1.6 6.4 0.00 0.41 0.41 94 1003.1
20260507003652 15 145 1.6 6.4 0.00 0.41 0.41 94 1003.2
20260507003529 15 167 1.6 6.4 0.00 0.41 0.41 94 1003.2
20260507003312 15 58 1.6 6.4 0.00 0.41 0.41 94 1003.1
20260507003211 15 210 1.6 6.4 0.00 0.41 0.41 94 1003.0
20260507003140 15 117 0.0 6.4 0.00 0.41 0.41 94 1003.1
20260507003131 15 120 1.6 6.4 0.00 0.41 0.41 94 1003.0
20260507003006 15 161 0.0 6.4 0.00 0.41 0.41 94 1003.1
20260507002908 15 153 0.0 3.2 0.00 0.41 0.41 94 1003.0
20260507002804 15 132 0.0 3.2 0.00 0.41 0.41 94 1003.0
20260507002705 15 131 0.0 3.2 0.00 0.41 0.41 94 1003.0
20260507002601 15 344 0.0 3.2 0.00 0.41 0.41 94 1003.0
20260507002508 15 230 0.0 3.2 0.00 0.41 0.41 94 1003.1
20260507002501 15 231 0.0 3.2 0.00 0.41 0.41 94 1003.1
20260507002357 15 231 0.0 3.2 0.00 0.41 0.41 94 1003.1
20260507002258 15 190 0.0 3.2 0.00 0.41 0.41 94 1003.1
20260507002157 15 241 0.0 4.8 0.00 0.41 0.41 94 1003.1
20260507002055 15 249 1.6 4.8 0.00 0.41 0.41 94 1003.1
20260507002026 15 247 1.6 6.4 0.00 0.41 0.41 94 1003.2
20260507002016 15 249 1.6 4.8 0.00 0.41 0.41 94 1003.1
20260507002008 15 248 1.6 4.8 0.00 0.41 0.41 94 1003.1
20260507001749 15 274 1.6 9.7 0.00 0.41 0.41 94 1003.2
20260507001647 15 273 1.6 9.7 0.00 0.41 0.41 94 1003.2
20260507001547 15 205 1.6 9.7 0.00 0.41 0.41 94 1003.2
20260507001502 15 197 1.6 9.7 0.00 0.41 0.41 94 1003.2
20260507001446 15 195 1.6 9.7 0.00 0.41 0.41 94 1003.2
20260507001347 15 200 1.6 9.7 0.00 0.41 0.41 94 1003.2
20260507001244 15 271 1.6 9.7 0.00 0.41 0.41 94 1003.2
20260507001142 15 193 1.6 9.7 0.00 0.41 0.41 94 1003.1
20260507001041 15 280 1.6 9.7 0.00 0.41 0.41 94 1003.1
20260507001002 15 252 1.6 9.7 0.00 0.41 0.41 94 1003.1
20260507000940 15 248 1.6 9.7 0.00 0.41 0.41 94 1003.1
20260507000859 15 210 1.6 6.4 0.00 0.41 0.41 94 1003.1
20260507000851 15 139 0.0 6.4 0.00 0.41 0.41 94 1003.1
20260507000633 15 103 0.0 6.4 0.00 0.41 0.41 94 1003.1
20260507000553 15 195 0.0 6.4 0.00 0.41 0.41 94 1003.0
20260507000545 15 186 0.0 6.4 0.00 0.41 0.41 94 1003.1
20260507000532 15 186 0.0 6.4 0.00 0.41 0.41 94 1003.1
20260507000524 15 184 0.0 6.4 0.00 0.41 0.41 94 1003.1
20260507000409 15 201 1.6 6.4 0.00 0.41 0.41 94 1003.0
20260507000358 15 195 0.0 6.4 0.00 0.41 0.41 94 1003.0
20260507000228 15 162 1.6 6.4 0.00 0.41 0.41 94 1003.0
20260506235926 15 201 1.6 6.4 0.00 0.41 0.41 94 1003.0
20260506235849 15 198 1.6 6.4 0.00 0.41 0.41 94 1002.9
20260506235840 15 200 1.6 6.4 0.00 0.41 0.41 94 1003.0
20260506235624 15 184 1.6 6.4 0.00 0.41 0.41 94 1003.0
20260506235523 15 262 1.6 6.4 0.00 0.41 0.41 94 1002.9
20260506235458 15 262 1.6 6.4 0.00 0.41 0.41 94 1002.9
20260506235420 15 273 1.6 6.4 0.00 0.41 0.41 94 1002.9
20260506235321 15 156 1.6 6.4 0.00 0.41 0.41 94 1002.8
20260506235217 15 191 1.6 6.4 0.00 0.41 0.41 94 1002.9
20260506235142 15 274 1.6 6.4 0.00 0.41 0.41 94 1002.9
20260506235132 15 186 1.6 6.4 0.00 0.41 0.41 94 1002.9
20260506234956 15 148 1.6 6.4 0.00 0.41 0.41 94 1002.9
20260506234916 15 150 1.6 6.4 0.00 0.41 0.41 94 1002.9
20260506234813 15 150 1.6 6.4 0.00 0.41 0.41 94 1002.9
20260506234710 15 142 1.6 6.4 0.00 0.41 0.41 94 1002.9
20260506234608 15 180 1.6 6.4 0.00 0.41 0.41 94 1003.0
20260506234506 15 345 0.0 4.8 0.00 0.41 0.41 94 1003.0
20260506234456 15 94 0.0 4.8 0.00 0.41 0.41 94 1003.0
20260506234403 15 207 0.0 4.8 0.00 0.41 0.41 94 1003.0
20260506234259 15 188 0.0 4.8 0.00 0.41 0.41 94 1002.9
20260506234158 15 156 0.0 4.8 0.00 0.41 0.41 94 1002.9
20260506234128 15 150 0.0 4.8 0.00 0.41 0.41 94 1002.9
20260506234116 15 148 0.0 4.8 0.00 0.41 0.41 94 1003.0
20260506233956 15 150 0.0 4.8 0.00 0.41 0.41 94 1002.9
20260506233855 15 240 0.0 3.2 0.00 0.41 0.41 94 1002.8
20260506233754 15 190 0.0 3.2 0.00 0.41 0.41 94 1002.8
20260506233745 15 225 1.6 6.4 0.00 0.41 0.41 94 1002.8
20260506233651 15 190 0.0 3.2 0.00 0.41 0.41 94 1002.8
20260506233641 15 193 1.6 6.4 0.00 0.41 0.41 94 1002.9
20260506233629 15 225 1.6 3.2 0.00 0.41 0.41 94 1002.8
20260506233507 15 225 1.6 6.4 0.00 0.41 0.41 94 1002.8
20260506233252 15 191 1.6 6.4 0.00 0.41 0.41 94 1002.9
20260506233146 15 271 1.6 6.4 0.00 0.41 0.41 94 1002.9
20260506233047 15 264 1.6 6.4 0.00 0.41 0.41 94 1003.0
20260506232943 15 269 1.6 6.4 0.00 0.41 0.41 94 1003.0
20260506232842 15 252 1.6 6.4 0.00 0.41 0.41 94 1003.0
20260506232737 15 150 1.6 6.4 0.00 0.41 0.41 94 1003.0
20260506232636 15 211 1.6 6.4 0.00 0.41 0.41 94 1003.0
20260506232535 15 172 1.6 4.8 0.00 0.41 0.41 94 1003.0
20260506232451 15 161 1.6 4.8 0.00 0.41 0.41 94 1003.0
20260506232437 15 160 1.6 6.4 0.00 0.41 0.41 94 1003.0
20260506232335 15 198 1.6 6.4 0.00 0.41 0.41 94 1003.0
20260506232230 15 163 1.6 6.4 0.00 0.41 0.41 94 1003.0
20260506232130 15 172 1.6 6.4 0.00 0.41 0.41 94 1003.0
20260506232026 15 172 1.6 6.4 0.00 0.41 0.41 94 1003.0
20260506231927 15 172 1.6 6.4 0.00 0.41 0.41 94 1003.0
20260506231850 15 217 1.6 6.4 0.00 0.41 0.41 94 1003.0
20260506231843 15 274 1.6 6.4 0.00 0.41 0.41 94 1003.0
20260506231839 15 117 1.6 6.4 0.00 0.41 0.41 94 1003.0
20260506231831 15 201 1.6 6.4 0.00 0.41 0.41 94 1002.9
20260506231814 15 212 1.6 6.4 0.00 0.41 0.41 94 1002.9
20260506231640 15 271 1.6 6.4 0.00 0.41 0.41 94 1003.0
20260506231321 15 278 1.6 6.4 0.00 0.41 0.41 94 1003.0
20260506231219 15 314 1.6 6.4 0.00 0.41 0.41 94 1003.0
20260506231118 15 145 1.6 6.4 0.00 0.41 0.41 94 1002.9
20260506231034 15 138 3.2 6.4 0.00 0.41 0.41 94 1002.9
20260506231030 15 325 1.6 8.0 0.00 0.41 0.41 94 1003.0
20260506231023 15 263 3.2 8.0 0.00 0.41 0.41 94 1002.9
20260506231016 15 177 1.6 6.4 0.00 0.41 0.41 94 1003.0
20260506231005 15 210 1.6 6.4 0.00 0.41 0.41 94 1003.0
20260506230955 15 145 1.6 6.4 0.00 0.41 0.41 94 1003.0
20260506230829 15 154 1.6 6.4 0.00 0.41 0.41 94 1003.0
20260506230814 15 153 1.6 6.4 0.00 0.41 0.41 94 1003.0
20260506230533 15 167 1.6 8.0 0.00 0.41 0.41 94 1003.0
20260506230204 15 148 3.2 9.7 0.00 0.41 0.41 94 1003.0
20260506230001 15 163 1.6 9.7 0.00 0.41 0.41 94 1003.1
20260506225946 15 207 1.6 9.7 0.00 0.41 0.41 94 1003.1
20260506225901 15 142 1.6 9.7 0.00 0.41 0.41 94 1003.0
20260506225757 15 153 1.6 9.7 0.00 0.41 0.41 94 1003.1
20260506225659 15 238 1.6 9.7 0.00 0.41 0.41 94 1003.1
20260506225555 15 176 1.6 9.7 0.00 0.41 0.41 94 1003.1
20260506225525 15 150 0.0 9.7 0.00 0.41 0.41 94 1003.1
20260506225516 15 150 1.6 9.7 0.00 0.41 0.41 94 1003.1
20260506225508 15 174 1.6 9.7 0.00 0.41 0.41 94 1003.1
20260506225253 15 129 0.0 4.8 0.00 0.41 0.41 94 1003.2
20260506225149 15 174 1.6 6.4 0.00 0.41 0.41 94 1003.2
20260506225119 15 184 1.6 6.4 0.00 0.41 0.41 94 1003.2
20260506225108 15 176 1.6 6.4 0.00 0.41 0.41 94 1003.1
20260506224946 15 184 1.6 6.4 0.00 0.41 0.41 94 1003.2
20260506224843 15 187 1.6 6.4 0.00 0.41 0.41 94 1003.2
20260506224743 15 139 1.6 6.4 0.00 0.41 0.41 94 1003.2
20260506224643 15 271 1.6 6.4 0.00 0.41 0.41 94 1003.2
20260506224541 15 198 1.6 6.4 0.00 0.41 0.41 94 1003.2
20260506224443 15 197 1.6 6.4 0.00 0.41 0.41 94 1003.1
20260506224339 15 197 1.6 6.4 0.03 0.41 0.41 94 1003.2
20260506224236 15 135 1.6 6.4 0.03 0.41 0.41 94 1003.1
20260506224136 15 197 1.6 6.4 0.03 0.41 0.41 94 1003.2
20260506224034 15 195 1.6 6.4 0.03 0.41 0.41 93 1003.1
20260506223934 15 212 1.6 6.4 0.03 0.41 0.41 93 1003.1
20260506223831 15 139 1.6 6.4 0.03 0.41 0.41 93 1003.1
20260506223730 15 142 1.6 6.4 0.03 0.41 0.41 93 1003.1
20260506223627 15 229 1.6 6.4 0.03 0.41 0.41 93 1003.2
20260506223527 15 150 1.6 4.8 0.03 0.41 0.41 93 1003.2
20260506223437 15 145 1.6 4.8 0.03 0.41 0.41 93 1003.2
20260506223427 15 207 1.6 4.8 0.03 0.41 0.41 93 1003.2
20260506223325 15 183 1.6 4.8 0.03 0.41 0.41 93 1003.2
20260506223258 15 274 1.6 4.8 0.03 0.41 0.41 93 1003.2
20260506223135 15 184 1.6 4.8 0.03 0.41 0.41 93 1003.2
20260506222917 15 172 1.6 4.8 0.03 0.41 0.41 93 1003.2
20260506222841 15 252 1.6 4.8 0.05 0.41 0.41 93 1003.3
20260506222832 15 276 1.6 4.8 0.03 0.41 0.41 93 1003.3
20260506222617 15 278 1.6 4.8 0.05 0.41 0.41 93 1003.3
20260506222515 15 294 1.6 8.0 0.05 0.41 0.41 93 1003.3
20260506222436 15 260 1.6 8.0 0.05 0.41 0.41 93 1003.3
20260506222415 15 215 1.6 8.0 0.05 0.41 0.41 93 1003.3
20260506222313 15 215 1.6 8.0 0.05 0.41 0.41 93 1003.3
20260506222213 15 190 1.6 8.0 0.05 0.41 0.41 93 1003.3
20260506222111 15 195 1.6 8.0 0.05 0.41 0.41 93 1003.2
20260506222043 15 115 1.6 8.0 0.05 0.41 0.41 93 1003.3
20260506222034 15 172 1.6 8.0 0.05 0.41 0.41 93 1003.2
20260506222023 15 134 1.6 8.0 0.05 0.41 0.41 93 1003.2
20260506221810 15 226 1.6 8.0 0.05 0.41 0.41 93 1003.3
20260506221800 15 162 1.6 8.0 0.05 0.41 0.41 93 1003.3
20260506221752 15 187 1.6 9.7 0.05 0.41 0.41 93 1003.3
20260506221748 15 156 3.2 9.7 0.05 0.41 0.41 93 1003.4
20260506221739 15 165 1.6 8.0 0.05 0.41 0.41 93 1003.3
20260506221456 15 232 3.2 9.7 0.05 0.41 0.41 93 1003.4
20260506221437 15 189 1.6 9.7 0.05 0.41 0.41 93 1003.4
20260506221103 15 148 3.2 9.7 0.05 0.41 0.41 93 1003.3
20260506221006 15 271 3.2 9.7 0.05 0.41 0.41 93 1003.4
20260506220932 15 195 3.2 9.7 0.05 0.41 0.41 93 1003.4
20260506220904 15 122 3.2 9.7 0.05 0.41 0.41 93 1003.3
20260506220830 15 184 1.6 9.7 0.05 0.41 0.41 93 1003.3
20260506220820 15 150 3.2 9.7 0.05 0.41 0.41 93 1003.4
20260506220603 15 177 1.6 9.7 0.05 0.41 0.41 93 1003.3
20260506220503 15 155 1.6 6.4 0.05 0.41 0.41 93 1003.4
20260506220432 15 143 1.6 6.4 0.05 0.41 0.41 93 1003.4
20260506220359 15 195 1.6 6.4 0.05 0.41 0.41 93 1003.4
20260506220259 15 285 1.6 6.4 0.05 0.41 0.41 93 1003.4
20260506220206 15 203 1.6 4.8 0.08 0.41 0.41 93 1003.5
20260506220157 15 182 1.6 6.4 0.05 0.41 0.41 93 1003.4
20260506220059 15 163 1.6 4.8 0.05 0.41 0.41 93 1003.5
20260506220043 15 169 1.6 4.8 0.05 0.41 0.41 93 1003.5
20260506215857 15 293 1.6 4.8 0.08 0.41 0.41 93 1003.5
20260506215755 15 283 1.6 6.4 0.08 0.41 0.41 93 1003.4
20260506215653 15 170 1.6 6.4 0.08 0.41 0.41 93 1003.4
20260506215618 15 150 1.6 6.4 0.08 0.41 0.41 93 1003.4
20260506215608 15 184 1.6 6.4 0.08 0.41 0.41 93 1003.4
20260506215431 15 150 1.6 6.4 0.08 0.41 0.41 93 1003.4
20260506215359 15 142 1.6 6.4 0.08 0.41 0.41 93 1003.4
20260506215352 15 236 1.6 6.4 0.08 0.41 0.41 93 1003.4
20260506215333 15 200 1.6 6.4 0.08 0.41 0.41 93 1003.4
20260506215210 15 163 1.6 6.4 0.08 0.41 0.41 93 1003.4
20260506215156 15 160 1.6 6.4 0.08 0.41 0.41 93 1003.5
20260506214841 15 217 1.6 6.4 0.08 0.41 0.41 93 1003.4
20260506214740 15 162 1.6 4.8 0.08 0.41 0.41 93 1003.4
20260506214641 15 134 1.6 4.8 0.08 0.41 0.41 93 1003.4
20260506214537 15 182 1.6 4.8 0.08 0.41 0.41 93 1003.4
20260506214425 15 273 1.6 4.8 0.08 0.41 0.41 93 1003.4
20260506214332 15 134 1.6 4.8 0.05 0.38 0.38 93 1003.4
20260506214228 15 92 1.6 4.8 0.05 0.38 0.38 93 1003.4
20260506214129 15 145 1.6 4.8 0.05 0.38 0.38 93 1003.4
20260506214029 15 255 1.6 4.8 0.05 0.38 0.38 93 1003.4
20260506213929 15 136 1.6 4.8 0.05 0.38 0.38 93 1003.4
20260506213822 15 146 1.6 4.8 0.05 0.38 0.38 93 1003.4
20260506213805 15 139 1.6 4.8 0.05 0.38 0.38 93 1003.4
20260506213622 15 215 1.6 4.8 0.05 0.38 0.38 93 1003.4
20260506213543 15 167 1.6 4.8 0.05 0.38 0.38 93 1003.3
20260506213420 15 167 1.6 12.9 0.05 0.38 0.38 93 1003.4
20260506213317 15 153 1.6 12.9 0.05 0.38 0.38 93 1003.4
20260506213217 15 183 3.2 12.9 0.05 0.38 0.38 93 1003.4
20260506213119 15 153 3.2 12.9 0.08 0.38 0.38 93 1003.4
20260506213015 15 150 3.2 12.9 0.08 0.38 0.38 93 1003.4
20260506212914 15 181 3.2 12.9 0.08 0.38 0.38 93 1003.4
20260506212831 15 228 3.2 12.9 0.05 0.36 0.38 92 1003.4
20260506212823 15 219 3.2 12.9 0.08 0.38 0.38 92 1003.4
20260506212633 15 136 3.2 11.3 0.05 0.36 0.36 92 1003.4
20260506212623 15 132 3.2 12.9 0.05 0.36 0.36 92 1003.4
20260506212421 15 150 3.2 9.7 0.05 0.36 0.36 92 1003.4
20260506212406 15 188 3.2 11.3 0.05 0.36 0.36 92 1003.4
20260506212259 15 106 3.2 11.3 0.05 0.36 0.36 92 1003.4
20260506212236 15 60 3.2 11.3 0.05 0.36 0.36 92 1003.5
20260506212201 15 164 3.2 11.3 0.05 0.36 0.36 92 1003.4
20260506212154 15 257 3.2 11.3 0.05 0.36 0.36 92 1003.5
20260506212140 15 159 3.2 11.3 0.05 0.36 0.36 92 1003.5
20260506212123 15 255 3.2 11.3 0.05 0.36 0.36 92 1003.5
20260506211757 15 225 3.2 11.3 0.05 0.36 0.36 92 1003.5
20260506211657 15 117 3.2 11.3 0.05 0.36 0.36 92 1003.4
20260506211558 15 162 3.2 11.3 0.05 0.36 0.36 92 1003.5
20260506211458 15 169 3.2 11.3 0.05 0.36 0.36 92 1003.5
20260506211419 15 210 3.2 11.3 0.05 0.36 0.36 92 1003.5
20260506211358 15 117 3.2 16.1 0.05 0.36 0.36 92 1003.5
20260506211255 15 145 3.2 17.7 0.05 0.36 0.36 92 1003.6
20260506211153 15 226 3.2 17.7 0.05 0.36 0.36 92 1003.5
20260506211053 15 181 3.2 17.7 0.05 0.36 0.36 92 1003.5
20260506210952 15 172 3.2 17.7 0.05 0.36 0.36 92 1003.6
20260506210919 15 128 3.2 17.7 0.05 0.36 0.36 92 1003.5
20260506210851 15 165 3.2 17.7 0.05 0.36 0.36 92 1003.5
20260506210751 15 120 3.2 17.7 0.05 0.36 0.36 92 1003.5
20260506210651 15 117 3.2 17.7 0.05 0.36 0.36 92 1003.5
20260506210551 15 161 3.2 17.7 0.05 0.36 0.36 92 1003.5
20260506210524 16 280 3.2 11.3 0.05 0.36 0.36 92 1003.6
20260506210514 15 142 3.2 17.7 0.05 0.36 0.36 92 1003.5
20260506210502 16 278 3.2 17.7 0.05 0.36 0.36 92 1003.6
20260506210253 16 262 3.2 9.7 0.05 0.36 0.36 92 1003.5
20260506210159 16 117 3.2 9.7 0.03 0.33 0.33 92 1003.6
20260506210149 16 257 3.2 9.7 0.05 0.36 0.36 92 1003.5
20260506210048 16 277 3.2 9.7 0.05 0.36 0.36 92 1003.5
20260506210031 16 203 3.2 9.7 0.03 0.33 0.33 92 1003.5
20260506205847 16 148 3.2 9.7 0.03 0.33 0.33 92 1003.6
20260506205748 16 210 3.2 9.7 0.05 0.33 0.33 92 1003.6
20260506205648 16 150 3.2 9.7 0.05 0.33 0.33 92 1003.6
20260506205632 16 123 3.2 9.7 0.05 0.33 0.33 92 1003.6
20260506205507 16 183 3.2 9.7 0.05 0.33 0.33 92 1003.6
20260506205458 16 159 3.2 9.7 0.05 0.33 0.33 92 1003.6
20260506205324 16 126 3.2 9.7 0.05 0.33 0.33 92 1003.7
20260506205318 16 159 3.2 9.7 0.05 0.33 0.33 92 1003.7
20260506205308 16 201 3.2 9.7 0.05 0.33 0.33 92 1003.6
20260506205253 16 263 3.2 9.7 0.05 0.33 0.33 92 1003.7
20260506205011 16 236 3.2 9.7 0.05 0.33 0.33 92 1003.7
20260506204850 16 273 3.2 11.3 0.05 0.33 0.33 92 1003.7
20260506204632 16 215 3.2 11.3 0.05 0.33 0.33 92 1003.7
20260506204529 16 160 3.2 11.3 0.08 0.33 0.33 92 1003.7
20260506204428 16 173 3.2 11.3 0.08 0.33 0.33 92 1003.8
20260506204415 16 148 3.2 11.3 0.08 0.33 0.33 92 1003.8
20260506204327 16 249 3.2 11.3 0.08 0.33 0.33 92 1003.7
20260506204227 16 137 3.2 11.3 0.08 0.33 0.33 92 1003.7
20260506204126 16 145 3.2 11.3 0.08 0.33 0.33 92 1003.7
20260506204019 16 186 3.2 11.3 0.08 0.33 0.33 92 1003.7
20260506203954 16 139 3.2 9.7 0.08 0.33 0.33 92 1003.7
20260506203944 16 162 3.2 11.3 0.08 0.33 0.33 92 1003.7
20260506203934 16 79 3.2 11.3 0.08 0.33 0.33 92 1003.7
20260506203719 16 194 3.2 9.7 0.08 0.33 0.33 92 1003.8
20260506203642 16 139 3.2 9.7 0.08 0.33 0.33 92 1003.8
20260506203633 16 170 3.2 9.7 0.08 0.33 0.33 92 1003.8
20260506203411 16 167 3.2 9.7 0.08 0.33 0.33 92 1003.8
20260506203312 16 129 3.2 9.7 0.08 0.33 0.33 92 1003.8
20260506203213 16 180 3.2 9.7 0.08 0.33 0.33 92 1003.8
20260506203132 16 44 3.2 9.7 0.05 0.30 0.30 92 1003.8
20260506203123 16 117 3.2 9.7 0.05 0.30 0.30 92 1003.8
20260506202912 16 161 3.2 9.7 0.05 0.30 0.30 92 1003.8
20260506202905 16 160 3.2 9.7 0.05 0.30 0.30 92 1003.8
20260506202806 16 197 3.2 9.7 0.05 0.30 0.30 92 1003.8
20260506202706 16 103 1.6 9.7 0.05 0.30 0.30 92 1003.8
20260506202606 16 186 1.6 9.7 0.05 0.30 0.30 92 1003.8
20260506202501 16 276 1.6 9.7 0.05 0.30 0.30 92 1003.8
20260506202407 16 210 1.6 9.7 0.05 0.30 0.30 92 1003.8
20260506202359 16 240 1.6 9.7 0.05 0.30 0.30 92 1003.8
20260506202257 16 285 1.6 9.7 0.05 0.30 0.30 92 1003.8
20260506202225 16 186 0.0 4.8 0.05 0.30 0.30 92 1003.8
20260506202215 16 264 1.6 9.7 0.05 0.30 0.30 92 1003.8
20260506201955 16 157 0.0 3.2 0.05 0.30 0.30 92 1003.8
20260506201905 16 156 0.0 3.2 0.05 0.30 0.30 92 1003.9
20260506201855 16 156 0.0 3.2 0.05 0.30 0.30 92 1003.9
20260506201757 16 189 0.0 3.2 0.05 0.30 0.30 92 1003.9
20260506201654 16 156 0.0 3.2 0.05 0.30 0.30 92 1003.8
20260506201553 16 156 0.0 3.2 0.05 0.30 0.30 92 1003.8
20260506201515 16 156 0.0 3.2 0.05 0.30 0.30 92 1003.9
20260506201505 16 153 0.0 3.2 0.05 0.30 0.30 92 1003.8
20260506201453 16 156 0.0 3.2 0.05 0.30 0.30 92 1003.9
20260506201243 16 156 0.0 4.8 0.05 0.30 0.30 92 1003.9
20260506201213 16 262 0.0 4.8 0.05 0.30 0.30 92 1003.9
20260506201209 16 276 1.6 6.4 0.05 0.30 0.30 92 1003.9
20260506201200 16 261 0.0 4.8 0.05 0.30 0.30 92 1003.9
20260506201020 16 276 1.6 6.4 0.05 0.30 0.30 92 1003.9
20260506200837 16 122 1.6 6.4 0.05 0.30 0.30 92 1003.9
20260506200754 16 187 1.6 8.0 0.05 0.30 0.30 91 1003.9
20260506200745 16 186 1.6 8.0 0.05 0.30 0.30 92 1003.9
20260506200731 16 187 1.6 8.0 0.05 0.30 0.30 91 1003.9
20260506200609 16 188 1.6 8.0 0.05 0.30 0.30 91 1003.9
20260506200551 16 188 1.6 8.0 0.05 0.30 0.30 91 1003.9
20260506200228 16 101 1.6 8.0 0.05 0.30 0.30 91 1003.9
20260506200127 16 276 1.6 8.0 0.05 0.30 0.30 91 1003.9
20260506200029 16 132 1.6 8.0 0.05 0.30 0.30 91 1003.9
20260506195923 16 154 1.6 8.0 0.05 0.30 0.30 91 1004.0
20260506195902 16 217 1.6 8.0 0.05 0.30 0.30 91 1004.0
20260506195825 16 139 1.6 8.0 0.05 0.30 0.30 91 1004.0
20260506195721 16 146 1.6 9.7 0.03 0.28 0.28 91 1004.1
20260506195623 16 184 1.6 9.7 0.03 0.28 0.28 91 1004.1
20260506195523 16 254 1.6 9.7 0.03 0.28 0.28 91 1004.1
20260506195413 16 257 1.6 9.7 0.03 0.28 0.28 91 1004.1
20260506195402 16 257 1.6 9.7 0.03 0.28 0.28 91 1004.1
20260506195312 16 187 3.2 9.7 0.03 0.28 0.28 91 1004.1
20260506195213 16 169 3.2 9.7 0.03 0.28 0.28 91 1004.1
20260506195115 16 156 1.6 9.7 0.03 0.28 0.28 91 1004.2
20260506195013 16 270 3.2 9.7 0.03 0.28 0.28 91 1004.1
20260506194911 16 259 3.2 12.9 0.05 0.28 0.28 91 1004.1
20260506194901 16 259 3.2 12.9 0.05 0.28 0.28 91 1004.1
20260506194813 16 148 1.6 12.9 0.05 0.28 0.28 91 1004.2
20260506194713 16 183 1.6 12.9 0.05 0.28 0.28 91 1004.1
20260506194612 16 194 1.6 12.9 0.03 0.25 0.25 91 1004.2
20260506194508 16 153 3.2 12.9 0.03 0.25 0.25 91 1004.2
20260506194407 16 177 1.6 12.9 0.03 0.25 0.25 91 1004.2
20260506194359 16 144 1.6 12.9 0.03 0.25 0.25 91 1004.2
20260506194301 16 270 1.6 12.9 0.03 0.25 0.25 91 1004.2
20260506194201 16 137 1.6 12.9 0.03 0.25 0.25 91 1004.2
20260506194100 16 150 1.6 12.9 0.03 0.25 0.25 91 1004.2
20260506194020 16 142 1.6 12.9 0.03 0.25 0.25 91 1004.2
20260506194003 16 127 1.6 9.7 0.03 0.25 0.25 91 1004.2
20260506193755 16 127 1.6 9.7 0.03 0.25 0.25 91 1004.2
20260506193719 16 139 1.6 9.7 0.03 0.25 0.25 91 1004.2
20260506193708 16 153 3.2 9.7 0.03 0.25 0.25 91 1004.2
20260506193453 16 164 1.6 8.0 0.05 0.25 0.25 91 1004.2
20260506193356 16 91 1.6 6.4 0.05 0.25 0.25 91 1004.2
20260506193347 16 79 1.6 6.4 0.05 0.25 0.25 91 1004.2
20260506193249 16 134 1.6 6.4 0.05 0.25 0.25 91 1004.2
20260506193148 16 212 1.6 6.4 0.05 0.25 0.25 91 1004.2
20260506193121 16 278 1.6 6.4 0.05 0.25 0.25 91 1004.1
20260506193045 16 224 1.6 6.4 0.05 0.25 0.25 91 1004.2
20260506193011 16 281 1.6 6.4 0.05 0.25 0.25 91 1004.2
20260506192841 16 278 1.6 6.4 0.05 0.25 0.25 91 1004.1
20260506192741 16 180 1.6 6.4 0.08 0.25 0.25 91 1004.0
20260506192641 16 115 1.6 6.4 0.08 0.25 0.25 91 1004.0
20260506192542 16 170 1.6 6.4 0.08 0.25 0.25 91 1004.0
20260506192502 16 311 1.6 6.4 0.08 0.25 0.25 91 1004.0
20260506192454 16 280 1.6 6.4 0.08 0.25 0.25 91 1004.1
20260506192442 16 312 1.6 6.4 0.08 0.25 0.25 91 1004.1
20260506192232 16 173 1.6 6.4 0.08 0.25 0.25 91 1004.0
20260506192132 16 218 1.6 6.4 0.08 0.25 0.25 91 1004.1
20260506192031 16 252 1.6 6.4 0.10 0.25 0.25 91 1004.1
20260506191931 16 153 0.0 6.4 0.10 0.25 0.25 91 1003.9
20260506191852 16 156 0.0 6.4 0.10 0.25 0.25 91 1003.9
20260506191830 16 148 0.0 6.4 0.10 0.25 0.25 91 1003.9
20260506191730 16 148 0.0 6.4 0.10 0.25 0.25 91 1003.9
20260506191630 16 120 0.0 3.2 0.10 0.25 0.25 91 1003.8
20260506191551 16 104 0.0 3.2 0.13 0.25 0.25 91 1003.9
20260506191543 16 120 0.0 3.2 0.10 0.25 0.25 91 1003.9
20260506191352 16 104 0.0 3.2 0.13 0.25 0.25 91 1003.9
20260506191328 16 204 0.0 3.2 0.13 0.25 0.25 91 1003.9
20260506191227 16 207 0.0 3.2 0.13 0.25 0.25 91 1003.8
20260506191128 16 148 0.0 1.6 0.13 0.25 0.25 91 1003.7
20260506191049 16 137 0.0 3.2 0.13 0.25 0.25 91 1003.8
20260506191040 16 136 0.0 3.2 0.13 0.25 0.25 91 1003.8
20260506190850 16 136 0.0 3.2 0.13 0.25 0.25 91 1003.8
20260506190823 16 136 0.0 3.2 0.15 0.25 0.25 91 1003.9
20260506190737 16 136 0.0 3.2 0.15 0.25 0.25 91 1003.9
20260506190722 16 225 0.0 3.2 0.15 0.25 0.25 91 1003.9
20260506190523 16 193 0.0 3.2 0.15 0.25 0.25 91 1003.9
20260506190504 16 256 0.0 3.2 0.15 0.25 0.25 91 1003.9
20260506190322 16 255 0.0 3.2 0.15 0.25 0.25 90 1004.0
20260506190220 16 255 0.0 3.2 0.18 0.25 0.25 90 1004.0
20260506190121 16 230 0.0 3.2 0.18 0.25 0.25 90 1004.1
20260506190042 16 274 0.0 3.2 0.18 0.25 0.25 90 1004.1
20260506190034 16 273 0.0 3.2 0.18 0.25 0.25 90 1004.1
20260506185846 16 188 0.0 3.2 0.18 0.25 0.25 90 1004.1
20260506185814 16 188 0.0 3.2 0.18 0.25 0.25 90 1004.1
20260506185715 16 188 0.0 3.2 0.20 0.25 0.25 90 1004.2
20260506185612 16 188 0.0 3.2 0.20 0.25 0.25 90 1004.2
20260506185512 16 189 0.0 3.2 0.20 0.25 0.25 90 1004.2
20260506185429 16 142 0.0 3.2 0.20 0.25 0.25 90 1004.2
20260506185407 16 139 0.0 3.2 0.20 0.25 0.25 90 1004.2
20260506185253 16 141 1.6 4.8 0.23 0.25 0.25 89 1004.2
20260506185242 16 142 0.0 3.2 0.23 0.25 0.25 90 1004.2
20260506184905 16 127 1.6 6.4 0.20 0.23 0.23 89 1004.2
20260506184845 16 156 1.6 6.4 0.20 0.23 0.23 89 1004.2
20260506184805 16 139 1.6 6.4 0.20 0.23 0.23 89 1004.2
20260506184707 16 142 1.6 6.4 0.20 0.23 0.23 89 1004.3
20260506184605 16 154 1.6 6.4 0.20 0.23 0.23 89 1004.3
20260506184507 16 186 1.6 6.4 0.20 0.23 0.23 89 1004.3
20260506184406 16 264 1.6 6.4 0.23 0.23 0.23 89 1004.4
20260506184356 16 280 1.6 6.4 0.23 0.23 0.23 89 1004.4
20260506184345 16 160 1.6 6.4 0.23 0.23 0.23 89 1004.4
20260506184224 16 302 1.6 6.4 0.23 0.23 0.23 89 1004.4
20260506184004 16 142 1.6 6.4 0.23 0.23 0.23 89 1004.4
20260506183903 16 154 1.6 9.7 0.23 0.23 0.23 89 1004.5
20260506183840 16 153 1.6 9.7 0.23 0.23 0.23 89 1004.5
20260506183803 16 156 1.6 9.7 0.23 0.23 0.23 89 1004.5
20260506183700 16 146 1.6 9.7 0.23 0.23 0.23 88 1004.6
20260506183602 16 156 1.6 9.7 0.23 0.23 0.23 88 1004.7
20260506183457 16 283 1.6 9.7 0.20 0.20 0.20 88 1004.7
20260506183358 16 148 0.0 9.7 0.20 0.20 0.20 88 1004.7
20260506183333 16 267 0.0 9.7 0.20 0.20 0.20 88 1004.7
20260506183257 16 257 0.0 9.7 0.20 0.20 0.20 88 1004.7
20260506183155 16 235 0.0 9.7 0.20 0.20 0.20 88 1004.7
20260506183052 16 160 0.0 9.7 0.20 0.20 0.20 88 1004.7
20260506182951 16 142 0.0 3.2 0.20 0.20 0.20 88 1004.7
20260506182852 16 159 0.0 1.6 0.20 0.20 0.20 88 1004.7
20260506182828 16 159 0.0 1.6 0.18 0.18 0.18 88 1004.7
20260506182749 16 264 0.0 3.2 0.18 0.18 0.18 87 1004.7
20260506182648 16 269 0.0 4.8 0.18 0.18 0.18 87 1004.7
20260506182545 16 269 0.0 4.8 0.18 0.18 0.18 87 1004.7
20260506182445 16 265 1.6 4.8 0.18 0.18 0.18 87 1004.8
20260506182344 16 128 1.6 4.8 0.18 0.18 0.18 87 1004.8
20260506182327 16 252 1.6 4.8 0.18 0.18 0.18 87 1004.8
20260506182243 16 188 1.6 4.8 0.18 0.18 0.18 86 1004.8
20260506182144 16 151 1.6 4.8 0.18 0.18 0.18 86 1004.8
20260506182035 16 197 1.6 4.8 0.15 0.15 0.15 86 1004.8
20260506181936 17 197 1.6 4.8 0.15 0.15 0.15 86 1004.8
20260506181836 17 198 1.6 4.8 0.15 0.15 0.15 86 1004.8
20260506181828 17 198 1.6 4.8 0.15 0.15 0.15 86 1004.9
20260506181736 17 190 1.6 6.4 0.15 0.15 0.15 86 1004.9
20260506181636 17 156 1.6 6.4 0.15 0.15 0.15 85 1005.0
20260506181531 17 161 1.6 6.4 0.15 0.15 0.15 85 1004.9
20260506181432 17 150 1.6 8.0 0.13 0.13 0.15 85 1004.9
20260506181336 17 158 1.6 8.0 0.13 0.13 0.13 85 1005.0
20260506181327 17 158 1.6 8.0 0.13 0.13 0.13 85 1004.9
20260506181241 17 156 1.6 8.0 0.13 0.13 0.13 84 1004.9
20260506181234 17 167 1.6 8.0 0.13 0.13 0.13 85 1005.0
20260506181215 17 201 1.6 8.0 0.13 0.13 0.13 84 1005.0
20260506180937 17 162 1.6 8.0 0.13 0.13 0.13 84 1004.9
20260506180920 17 137 1.6 8.0 0.10 0.10 0.13 83 1004.9
20260506180913 17 145 1.6 8.0 0.10 0.10 0.13 83 1004.9
20260506180635 17 132 1.6 8.0 0.10 0.10 0.10 83 1004.9
20260506180426 17 120 1.6 6.4 0.08 0.08 0.08 82 1005.1
20260506180419 17 154 1.6 6.4 0.10 0.10 0.10 83 1005.1
20260506180409 17 280 1.6 6.4 0.08 0.08 0.08 81 1005.0
20260506180404 17 153 1.6 6.4 0.08 0.08 0.08 82 1005.1
20260506180359 17 139 1.6 6.4 0.08 0.08 0.08 82 1005.1
20260506180347 17 273 1.6 6.4 0.10 0.10 0.10 82 1005.1
20260506180340 17 272 1.6 6.4 0.10 0.10 0.10 82 1005.1
20260506180326 17 261 1.6 6.4 0.08 0.08 0.08 82 1005.1
20260506180034 17 138 1.6 6.4 0.08 0.08 0.08 82 1004.9
20260506175735 18 114 1.6 6.4 0.05 0.05 0.05 81 1005.1
20260506175727 17 114 1.6 6.4 0.05 0.05 0.08 81 1005.1
20260506175534 18 264 1.6 6.4 0.05 0.05 0.05 79 1005.2
20260506175524 18 145 1.6 6.4 0.05 0.05 0.05 80 1005.2
20260506175328 18 153 1.6 6.4 0.05 0.05 0.05 78 1005.2
20260506175310 18 160 0.0 6.4 0.05 0.05 0.05 78 1005.2
20260506175207 18 136 1.6 3.2 0.03 0.03 0.05 77 1005.2
20260506175104 18 136 1.6 4.8 0.03 0.03 0.03 77 1005.2
20260506175005 18 123 1.6 4.8 0.03 0.03 0.03 77 1005.3
20260506174903 18 103 1.6 6.4 0.03 0.03 0.03 77 1005.3
20260506174827 18 137 1.6 6.4 0.03 0.03 0.03 76 1005.3
20260506174802 18 165 1.6 6.4 0.03 0.03 0.03 76 1005.3
20260506174702 18 280 1.6 6.4 0.03 0.03 0.03 76 1005.3
20260506174600 18 208 1.6 6.4 0.03 0.03 0.03 75 1005.2
20260506174520 19 128 3.2 12.9 0.00 0.00 0.00 74 1005.2
20260506174509 18 238 3.2 12.9 0.00 0.00 0.00 74 1005.2
20260506174329 19 123 3.2 12.9 0.00 0.00 0.00 74 1005.2
20260506174322 19 163 3.2 12.9 0.00 0.00 0.00 72 1005.2
20260506174311 19 120 3.2 12.9 0.00 0.00 0.00 73 1005.2
20260506174058 19 156 4.8 12.9 0.00 0.00 0.00 71 1005.2
20260506174049 19 111 4.8 12.9 0.00 0.00 0.00 70 1005.2
20260506174043 20 98 4.8 12.9 0.00 0.00 0.00 69 1005.2
20260506174029 19 186 3.2 12.9 0.00 0.00 0.00 71 1005.2
20260506173901 20 112 4.8 12.9 0.00 0.00 0.00 70 1005.2
20260506173648 20 283 4.8 12.9 0.00 0.00 0.00 69 1005.2
20260506173556 20 235 4.8 16.1 0.00 0.00 0.00 68 1005.1
20260506173546 20 243 4.8 12.9 0.00 0.00 0.00 68 1005.2
20260506173452 20 142 4.8 12.9 0.00 0.00 0.00 68 1005.2
20260506173436 20 143 4.8 16.1 0.00 0.00 0.00 68 1005.1
20260506173242 20 135 4.8 16.1 0.00 0.00 0.00 68 1005.1
20260506173142 20 85 4.8 16.1 0.00 0.00 0.00 67 1005.0
20260506173042 20 165 3.2 16.1 0.00 0.00 0.00 67 1005.1
20260506172936 20 191 4.8 16.1 0.00 0.00 0.00 67 1005.0
20260506172836 20 279 3.2 16.1 0.00 0.00 0.00 66 1005.0
20260506172827 20 273 3.2 16.1 0.00 0.00 0.00 66 1005.0
20260506172736 20 142 3.2 16.1 0.00 0.00 0.00 65 1005.0
20260506172637 20 120 4.8 22.5 0.00 0.00 0.00 65 1004.9
20260506172535 20 271 3.2 22.5 0.00 0.00 0.00 64 1004.8
20260506172430 21 159 3.2 22.5 0.00 0.00 0.00 65 1004.9
20260506172334 21 101 3.2 22.5 0.00 0.00 0.00 64 1004.9
20260506172325 21 101 3.2 22.5 0.00 0.00 0.00 64 1004.8
20260506172233 21 295 3.2 22.5 0.00 0.00 0.00 64 1004.8
20260506172131 21 134 3.2 22.5 0.00 0.00 0.00 64 1004.7
20260506172031 21 164 3.2 22.5 0.00 0.00 0.00 64 1004.7
20260506172004 21 273 3.2 22.5 0.00 0.00 0.00 63 1004.6
20260506171952 21 270 3.2 22.5 0.00 0.00 0.00 63 1004.7
20260506171828 21 273 3.2 22.5 0.00 0.00 0.00 63 1004.6
20260506171728 21 176 3.2 22.5 0.00 0.00 0.00 63 1004.7
20260506171654 21 323 3.2 12.9 0.00 0.00 0.00 63 1004.6
20260506171645 21 50 3.2 12.9 0.00 0.00 0.00 62 1004.7
20260506171428 21 134 3.2 12.9 0.00 0.00 0.00 63 1004.7
20260506171333 21 146 3.2 12.9 0.00 0.00 0.00 63 1004.7
20260506171327 21 145 3.2 12.9 0.00 0.00 0.00 63 1004.7
20260506171228 21 276 3.2 12.9 0.00 0.00 0.00 62 1004.6
20260506171128 21 277 3.2 17.7 0.00 0.00 0.00 63 1004.6
20260506171029 21 281 3.2 17.7 0.00 0.00 0.00 63 1004.5
20260506170928 21 108 3.2 17.7 0.00 0.00 0.00 62 1004.6
20260506170829 21 340 4.8 17.7 0.00 0.00 0.00 62 1004.7
20260506170753 21 299 4.8 17.7 0.00 0.00 0.00 63 1004.7
20260506170743 21 52 4.8 17.7 0.00 0.00 0.00 62 1004.6
20260506170527 21 283 4.8 17.7 0.00 0.00 0.00 62 1004.7
20260506170428 21 201 4.8 17.7 0.00 0.00 0.00 62 1004.6
20260506170354 21 271 4.8 17.7 0.00 0.00 0.00 62 1004.6
20260506170341 21 157 4.8 17.7 0.00 0.00 0.00 62 1004.7
20260506170149 21 142 4.8 16.1 0.00 0.00 0.00 63 1004.7
20260506170137 21 240 4.8 16.1 0.00 0.00 0.00 62 1004.7
20260506165921 21 112 4.8 16.1 0.00 0.00 0.00 63 1004.7
20260506165828 21 210 4.8 16.1 0.00 0.00 0.00 64 1004.8
20260506165821 21 142 4.8 16.1 0.00 0.00 0.00 64 1004.8
20260506165717 21 263 4.8 16.1 0.00 0.00 0.00 63 1004.7
20260506165618 21 198 4.8 16.1 0.00 0.00 0.00 63 1004.7
20260506165515 21 285 3.2 16.1 0.00 0.00 0.00 63 1004.7
20260506165415 21 278 3.2 16.1 0.00 0.00 0.00 63 1004.8
20260506165325 21 186 3.2 16.1 0.00 0.00 0.00 63 1004.7
20260506165315 21 197 3.2 16.1 0.00 0.00 0.00 63 1004.7
20260506165213 21 136 3.2 16.1 0.00 0.00 0.00 64 1004.8
20260506165153 21 304 3.2 16.1 0.00 0.00 0.00 63 1004.8
20260506165030 21 260 3.2 16.1 0.00 0.00 0.00 63 1004.7
20260506164826 21 139 1.6 11.3 0.00 0.00 0.00 64 1004.8
20260506164809 21 276 1.6 11.3 0.00 0.00 0.00 64 1004.8
20260506164709 21 120 1.6 6.4 0.00 0.00 0.00 66 1004.9
20260506164607 21 259 1.6 9.7 0.00 0.00 0.00 65 1004.8
20260506164553 21 135 1.6 9.7 0.00 0.00 0.00 65 1004.9
20260506164505 21 271 1.6 9.7 0.00 0.00 0.00 65 1004.8
20260506164438 21 108 1.6 9.7 0.00 0.00 0.00 65 1004.8
20260506164305 21 162 1.6 9.7 0.00 0.00 0.00 65 1004.9
20260506164226 21 103 1.6 9.7 0.00 0.00 0.00 65 1004.8
20260506164057 21 269 1.6 9.7 0.00 0.00 0.00 65 1004.8
20260506164011 21 136 1.6 9.7 0.00 0.00 0.00 65 1004.8
20260506163956 21 132 1.6 9.7 0.00 0.00 0.00 65 1004.8
20260506163834 21 139 1.6 9.7 0.00 0.00 0.00 65 1004.9
20260506163710 21 188 1.6 9.7 0.00 0.00 0.00 65 1004.9
20260506163453 21 148 3.2 11.3 0.00 0.00 0.00 65 1004.8
20260506163440 21 128 3.2 11.3 0.00 0.00 0.00 65 1005.0
20260506163433 21 167 3.2 11.3 0.00 0.00 0.00 65 1005.0
20260506163422 21 136 3.2 11.3 0.00 0.00 0.00 65 1004.9
20260506163412 21 136 3.2 11.3 0.00 0.00 0.00 65 1005.0
20260506163043 21 159 3.2 11.3 0.00 0.00 0.00 64 1004.9
20260506162943 21 222 3.2 11.3 0.00 0.00 0.00 64 1005.0
20260506162843 21 139 3.2 11.3 0.00 0.00 0.00 64 1005.0
20260506162826 21 127 3.2 11.3 0.00 0.00 0.00 64 1005.1
20260506162743 21 176 3.2 11.3 0.00 0.00 0.00 64 1005.1
20260506162709 21 169 3.2 9.7 0.00 0.00 0.00 64 1005.1
20260506162658 21 139 3.2 11.3 0.00 0.00 0.00 64 1005.1
20260506162442 21 163 3.2 9.7 0.00 0.00 0.00 64 1005.1
20260506162341 21 170 3.2 9.7 0.00 0.00 0.00 65 1005.2
20260506162328 21 267 3.2 8.0 0.00 0.00 0.00 65 1005.1
20260506162238 21 145 3.2 8.0 0.00 0.00 0.00 65 1005.1
20260506162133 21 231 3.2 11.3 0.00 0.00 0.00 65 1005.2
20260506162033 21 172 3.2 12.9 0.00 0.00 0.00 65 1005.2
20260506162004 21 148 4.8 12.9 0.00 0.00 0.00 65 1005.2
20260506161954 21 139 4.8 12.9 0.00 0.00 0.00 65 1005.1
20260506161826 21 148 4.8 12.9 0.00 0.00 0.00 65 1005.2
20260506161730 21 150 3.2 12.9 0.00 0.00 0.00 64 1005.1
20260506161626 21 276 3.2 12.9 0.00 0.00 0.00 64 1005.1
20260506161525 21 162 3.2 12.9 0.00 0.00 0.00 65 1005.1
20260506161448 21 150 3.2 12.9 0.00 0.00 0.00 65 1005.2
20260506161432 21 136 3.2 12.9 0.00 0.00 0.00 64 1005.2
20260506161226 21 172 3.2 12.9 0.00 0.00 0.00 65 1005.2
20260506161117 21 129 3.2 12.9 0.00 0.00 0.00 65 1005.2
20260506161058 21 276 3.2 6.4 0.00 0.00 0.00 65 1005.3
20260506161029 21 170 3.2 11.3 0.00 0.00 0.00 65 1005.3
20260506161002 21 131 3.2 6.4 0.00 0.00 0.00 65 1005.3
20260506160818 21 200 3.2 6.4 0.00 0.00 0.00 65 1005.3
20260506160716 21 191 3.2 6.4 0.00 0.00 0.00 66 1005.4
20260506160610 21 290 3.2 8.0 0.00 0.00 0.00 66 1005.4
20260506160511 21 257 3.2 8.0 0.00 0.00 0.00 66 1005.4
20260506160412 21 281 3.2 8.0 0.00 0.00 0.00 66 1005.4
20260506160325 21 153 3.2 9.7 0.00 0.00 0.00 67 1005.4
20260506160311 21 153 3.2 11.3 0.00 0.00 0.00 67 1005.4
20260506160211 21 114 3.2 11.3 0.00 0.00 0.00 66 1005.4
20260506160105 21 198 3.2 11.3 0.00 0.00 0.00 66 1005.5
20260506160005 20 167 1.6 11.3 0.00 0.00 0.00 66 1005.5
20260506155905 20 271 3.2 11.3 0.00 0.00 0.00 66 1005.5
20260506155806 20 271 3.2 11.3 0.00 0.00 0.00 66 1005.6
20260506155706 20 271 3.2 11.3 0.00 0.00 0.00 66 1005.6
20260506155606 20 163 3.2 11.3 0.00 0.00 0.00 66 1005.6
20260506155505 20 192 3.2 11.3 0.00 0.00 0.00 66 1005.6
20260506155405 20 254 3.2 11.3 0.00 0.00 0.00 67 1005.7
20260506155332 20 65 3.2 11.3 0.00 0.00 0.00 66 1005.8
20260506155326 20 276 3.2 11.3 0.00 0.00 0.00 67 1005.7
20260506155316 20 278 3.2 11.3 0.00 0.00 0.00 67 1005.7
20260506155055 20 141 3.2 11.3 0.00 0.00 0.00 66 1005.8
20260506154955 20 127 1.6 11.3 0.00 0.00 0.00 66 1005.8
20260506154855 20 136 1.6 11.3 0.00 0.00 0.00 66 1005.8
20260506154828 20 195 1.6 9.7 0.00 0.00 0.00 67 1005.8
20260506154808 20 122 1.6 8.0 0.00 0.00 0.00 67 1005.8
20260506154759 20 181 1.6 8.0 0.00 0.00 0.00 67 1005.8
20260506154743 20 135 1.6 8.0 0.00 0.00 0.00 67 1005.9
20260506154504 20 181 1.6 6.4 0.00 0.00 0.00 67 1005.9
20260506154325 20 170 1.6 6.4 0.00 0.00 0.00 68 1006.0
20260506154249 20 106 1.6 6.4 0.00 0.00 0.00 68 1006.0
20260506154147 20 135 1.6 6.4 0.00 0.00 0.00 68 1006.0
20260506154046 20 132 1.6 6.4 0.00 0.00 0.00 68 1006.0
20260506154011 20 131 3.2 8.0 0.00 0.00 0.00 68 1006.0
20260506154002 20 132 1.6 6.4 0.00 0.00 0.00 68 1006.0
20260506153820 20 131 3.2 8.0 0.00 0.00 0.00 68 1006.0
20260506153743 20 131 3.2 11.3 0.00 0.00 0.00 68 1006.0
20260506153640 20 159 3.2 11.3 0.00 0.00 0.00 67 1006.0
20260506153535 20 170 3.2 11.3 0.00 0.00 0.00 68 1006.0
20260506153436 20 151 3.2 11.3 0.00 0.00 0.00 68 1006.0
20260506153336 20 140 3.2 11.3 0.00 0.00 0.00 68 1006.1
20260506153320 20 169 3.2 11.3 0.00 0.00 0.00 68 1006.0
20260506153307 20 125 3.2 11.3 0.00 0.00 0.00 68 1006.0
20260506153143 20 222 3.2 11.3 0.00 0.00 0.00 68 1006.0
20260506152928 20 214 3.2 11.3 0.00 0.00 0.00 68 1006.0
20260506152827 20 175 3.2 11.3 0.00 0.00 0.00 68 1006.1
20260506152820 20 174 3.2 11.3 0.00 0.00 0.00 68 1006.1
20260506152727 20 120 3.2 6.4 0.00 0.00 0.00 68 1006.1
20260506152649 20 157 3.2 9.7 0.00 0.00 0.00 68 1006.2
20260506152639 20 184 3.2 8.0 0.00 0.00 0.00 68 1006.2
20260506152423 20 129 3.2 9.7 0.00 0.00 0.00 68 1006.2
20260506152356 20 274 3.2 9.7 0.00 0.00 0.00 68 1006.3
20260506152346 20 142 3.2 9.7 0.00 0.00 0.00 68 1006.3
20260506152338 20 141 3.2 9.7 0.00 0.00 0.00 68 1006.3
20260506152122 20 231 3.2 9.7 0.00 0.00 0.00 68 1006.2
20260506152102 20 148 3.2 9.7 0.00 0.00 0.00 68 1006.3
20260506151939 20 193 3.2 9.7 0.00 0.00 0.00 68 1006.3
20260506151921 20 166 3.2 9.7 0.00 0.00 0.00 68 1006.4
20260506151717 20 153 3.2 11.3 0.00 0.00 0.00 68 1006.4
20260506151613 20 142 3.2 11.3 0.00 0.00 0.00 68 1006.3
20260506151507 20 145 3.2 11.3 0.00 0.00 0.00 68 1006.3
20260506151408 20 193 3.2 11.3 0.00 0.00 0.00 68 1006.4
20260506151353 20 222 3.2 19.3 0.00 0.00 0.00 68 1006.4
20260506151346 20 280 3.2 19.3 0.00 0.00 0.00 68 1006.4
20260506151225 20 151 3.2 19.3 0.00 0.00 0.00 68 1006.4
20260506151000 20 156 3.2 19.3 0.00 0.00 0.00 67 1006.4
20260506150901 20 159 3.2 19.3 0.00 0.00 0.00 68 1006.4
20260506150816 20 188 3.2 19.3 0.00 0.00 0.00 68 1006.5
20260506150801 20 276 3.2 19.3 0.00 0.00 0.00 68 1006.5
20260506150721 20 160 3.2 19.3 0.00 0.00 0.00 68 1006.5
20260506150705 20 129 3.2 19.3 0.00 0.00 0.00 68 1006.5
20260506150552 20 198 3.2 8.0 0.00 0.00 0.00 68 1006.5
20260506150538 20 142 3.2 19.3 0.00 0.00 0.00 68 1006.6
20260506150409 20 229 3.2 8.0 0.00 0.00 0.00 68 1006.5
20260506150157 20 172 3.2 8.0 0.00 0.00 0.00 68 1006.5
20260506150119 20 153 3.2 8.0 0.00 0.00 0.00 69 1006.4
20260506150110 20 148 3.2 8.0 0.00 0.00 0.00 68 1006.4
20260506145853 20 308 3.2 8.0 0.00 0.00 0.00 69 1006.4
20260506145815 20 269 3.2 9.7 0.00 0.00 0.00 69 1006.4
20260506145756 20 274 3.2 9.7 0.00 0.00 0.00 69 1006.4
20260506145736 20 229 3.2 12.9 0.00 0.00 0.00 68 1006.2
20260506145725 20 237 3.2 9.7 0.00 0.00 0.00 68 1006.3
20260506145602 20 276 3.2 9.7 0.00 0.00 0.00 68 1006.2
20260506145429 20 179 3.2 12.9 0.00 0.00 0.00 69 1006.1
20260506145310 20 149 3.2 12.9 0.00 0.00 0.00 69 1006.1
20260506145301 20 148 3.2 12.9 0.00 0.00 0.00 69 1006.1
20260506145044 20 153 3.2 12.9 0.00 0.00 0.00 69 1006.1
20260506144939 20 142 3.2 12.9 0.00 0.00 0.00 69 1006.2
20260506144837 20 128 3.2 12.9 0.00 0.00 0.00 69 1006.3
20260506144816 20 159 3.2 12.9 0.00 0.00 0.00 69 1006.3
20260506144737 20 282 3.2 12.9 0.00 0.00 0.00 69 1006.3
20260506144639 20 134 3.2 12.9 0.00 0.00 0.00 69 1006.4
20260506144549 20 218 3.2 11.3 0.00 0.00 0.00 70 1006.5
20260506144538 20 157 3.2 12.9 0.00 0.00 0.00 69 1006.4
20260506144442 20 226 3.2 11.3 0.00 0.00 0.00 69 1006.5
20260506144425 20 179 3.2 11.3 0.00 0.00 0.00 70 1006.5
20260506144231 20 183 3.2 11.3 0.00 0.00 0.00 69 1006.4
20260506144131 20 150 3.2 11.3 0.00 0.00 0.00 70 1006.4
20260506144033 20 136 3.2 9.7 0.00 0.00 0.00 70 1006.4
20260506143925 20 266 3.2 9.7 0.00 0.00 0.00 70 1006.4
20260506143816 20 156 3.2 9.7 0.00 0.00 0.00 69 1006.3
20260506143725 20 203 3.2 9.7 0.00 0.00 0.00 70 1006.3
20260506143627 20 130 3.2 9.7 0.00 0.00 0.00 69 1006.3
20260506143526 20 150 3.2 9.7 0.00 0.00 0.00 70 1006.3
20260506143424 20 142 3.2 9.7 0.00 0.00 0.00 69 1006.3
20260506143325 20 147 3.2 9.7 0.00 0.00 0.00 70 1006.4
20260506143315 20 142 3.2 9.7 0.00 0.00 0.00 70 1006.4
20260506143250 20 151 3.2 9.7 0.00 0.00 0.00 71 1006.3
20260506143240 20 150 3.2 9.7 0.00 0.00 0.00 71 1006.4
20260506143020 20 204 3.2 12.9 0.00 0.00 0.00 70 1006.3
20260506142916 20 246 3.2 12.9 0.00 0.00 0.00 71 1006.3
20260506142821 20 179 3.2 12.9 0.00 0.00 0.00 71 1006.3
20260506142816 20 192 3.2 12.9 0.00 0.00 0.00 71 1006.3
20260506142715 19 249 3.2 12.9 0.00 0.00 0.00 71 1006.3
20260506142615 19 299 3.2 12.9 0.00 0.00 0.00 71 1006.3
20260506142514 19 179 3.2 12.9 0.00 0.00 0.00 72 1006.3
20260506142410 19 132 3.2 12.9 0.00 0.00 0.00 71 1006.3
20260506142343 19 145 1.6 12.9 0.00 0.00 0.00 71 1006.3
20260506142328 19 276 1.6 12.9 0.00 0.00 0.00 72 1006.3
20260506142110 19 274 1.6 12.9 0.00 0.00 0.00 71 1006.2
20260506142008 19 280 1.6 9.7 0.00 0.00 0.00 72 1006.3
20260506141903 19 215 1.6 9.7 0.00 0.00 0.00 71 1006.3
20260506141815 19 200 1.6 9.7 0.00 0.00 0.00 71 1006.2
20260506141804 19 198 1.6 9.7 0.00 0.00 0.00 71 1006.2
20260506141703 19 149 1.6 9.7 0.00 0.00 0.00 72 1006.2
20260506141606 19 136 1.6 9.7 0.00 0.00 0.00 72 1006.2
20260506141502 19 211 1.6 9.7 0.00 0.00 0.00 72 1006.3
20260506141353 19 156 1.6 6.4 0.00 0.00 0.00 72 1006.2
20260506141316 19 139 1.6 6.4 0.00 0.00 0.00 72 1006.3
20260506141253 19 194 1.6 6.4 0.00 0.00 0.00 72 1006.3
20260506141153 19 153 1.6 6.4 0.00 0.00 0.00 72 1006.3
20260506141054 19 139 1.6 6.4 0.00 0.00 0.00 72 1006.3
20260506141023 19 187 1.6 6.4 0.00 0.00 0.00 72 1006.3
20260506141018 19 153 1.6 8.0 0.00 0.00 0.00 73 1006.3
20260506141011 18 150 1.6 8.0 0.00 0.00 0.00 73 1006.3
20260506141002 19 160 1.6 6.4 0.00 0.00 0.00 72 1006.3
20260506140943 19 156 1.6 6.4 0.00 0.00 0.00 72 1006.3
20260506140931 19 165 1.6 6.4 0.00 0.00 0.00 72 1006.3
20260506140447 18 149 1.6 8.0 0.00 0.00 0.00 73 1006.2
20260506140342 18 203 1.6 8.0 0.00 0.00 0.00 73 1006.2
20260506140303 18 153 1.6 8.0 0.00 0.00 0.00 73 1006.1
20260506140242 18 153 1.6 8.0 0.00 0.00 0.00 73 1006.1
20260506140141 18 204 1.6 8.0 0.00 0.00 0.00 73 1006.0
20260506140041 18 179 3.2 9.7 0.00 0.00 0.00 73 1006.0
20260506135942 18 184 3.2 9.7 0.00 0.00 0.00 73 1006.0
20260506135842 18 108 3.2 9.7 0.00 0.00 0.00 73 1006.0
20260506135759 18 187 3.2 9.7 0.00 0.00 0.00 73 1006.0
20260506135741 18 235 3.2 9.7 0.00 0.00 0.00 73 1006.0
20260506135641 18 338 3.2 9.7 0.00 0.00 0.00 74 1006.0
20260506135538 18 152 3.2 9.7 0.00 0.00 0.00 73 1006.0
20260506135436 18 139 3.2 9.7 0.00 0.00 0.00 73 1006.1
20260506135331 18 179 3.2 9.7 0.00 0.00 0.00 73 1006.1
20260506135252 18 156 3.2 9.7 0.00 0.00 0.00 73 1006.1
20260506135232 18 146 3.2 9.7 0.00 0.00 0.00 73 1006.1
20260506135132 18 173 3.2 9.7 0.00 0.00 0.00 74 1006.1
20260506135031 18 291 3.2 9.7 0.00 0.00 0.00 74 1006.1
20260506135006 18 141 3.2 9.7 0.00 0.00 0.00 74 1006.2
20260506134928 18 148 3.2 9.7 0.00 0.00 0.00 74 1006.2
20260506134900 18 156 3.2 9.7 0.00 0.00 0.00 74 1006.2
20260506134724 18 215 1.6 9.7 0.00 0.00 0.00 75 1006.3
20260506134623 18 156 1.6 8.0 0.00 0.00 0.00 75 1006.3
20260506134524 18 158 1.6 8.0 0.00 0.00 0.00 74 1006.3
20260506134424 18 124 1.6 8.0 0.00 0.00 0.00 74 1006.3
20260506134318 18 222 1.6 8.0 0.00 0.00 0.00 74 1006.3
20260506134241 18 276 1.6 11.3 0.00 0.00 0.00 74 1006.3
20260506134218 18 195 1.6 11.3 0.00 0.00 0.00 74 1006.4
20260506134117 18 189 1.6 11.3 0.00 0.00 0.00 74 1006.4
20260506134017 18 197 1.6 11.3 0.00 0.00 0.00 75 1006.4
20260506133918 18 194 1.6 11.3 0.00 0.00 0.00 75 1006.4
20260506133811 18 162 1.6 11.3 0.00 0.00 0.00 75 1006.4
20260506133711 18 212 1.6 11.3 0.00 0.00 0.00 75 1006.5
20260506133611 18 283 1.6 11.3 0.00 0.00 0.00 75 1006.5
20260506133511 18 150 3.2 11.3 0.00 0.00 0.00 75 1006.4
20260506133440 18 86 1.6 11.3 0.00 0.00 0.00 75 1006.5
20260506133428 18 191 3.2 11.3 0.00 0.00 0.00 75 1006.4
20260506133228 18 197 1.6 8.0 0.00 0.00 0.00 75 1006.5
20260506133210 18 201 1.6 8.0 0.00 0.00 0.00 75 1006.5
20260506133110 18 193 1.6 8.0 0.00 0.00 0.00 75 1006.5
20260506133009 18 148 1.6 8.0 0.00 0.00 0.00 75 1006.5
20260506132951 18 184 1.6 8.0 0.00 0.00 0.00 75 1006.5
20260506132906 18 139 1.6 8.0 0.00 0.00 0.00 75 1006.5
20260506132839 18 153 1.6 8.0 0.00 0.00 0.00 75 1006.5
20260506132659 18 198 1.6 8.0 0.00 0.00 0.00 75 1006.5
20260506132626 18 153 1.6 9.7 0.00 0.00 0.00 76 1006.4
20260506132616 18 163 1.6 9.7 0.00 0.00 0.00 76 1006.4
20260506132359 17 210 1.6 9.7 0.00 0.00 0.00 76 1006.5
20260506132259 17 187 1.6 9.7 0.00 0.00 0.00 76 1006.4
20260506132227 17 186 1.6 9.7 0.00 0.00 0.00 76 1006.5
20260506132202 17 168 1.6 9.7 0.00 0.00 0.00 76 1006.5
20260506132057 17 131 1.6 9.7 0.00 0.00 0.00 76 1006.5
20260506131955 17 153 1.6 9.7 0.00 0.00 0.00 76 1006.6
20260506131854 17 333 1.6 9.7 0.00 0.00 0.00 76 1006.6
20260506131749 17 180 1.6 9.7 0.00 0.00 0.00 76 1006.6
20260506131723 17 191 1.6 9.7 0.00 0.00 0.00 76 1006.7
20260506131647 17 231 1.6 9.7 0.00 0.00 0.00 76 1006.7
20260506131548 17 172 1.6 6.4 0.00 0.00 0.00 76 1006.6
20260506131522 17 139 1.6 6.4 0.00 0.00 0.00 76 1006.7
20260506131514 17 136 1.6 6.4 0.00 0.00 0.00 76 1006.6
20260506131506 17 128 1.6 6.4 0.00 0.00 0.00 76 1006.6
20260506131451 17 148 1.6 6.4 0.00 0.00 0.00 76 1006.6
20260506131208 17 210 1.6 6.4 0.00 0.00 0.00 76 1006.6
20260506131158 17 132 1.6 6.4 0.00 0.00 0.00 76 1006.6
20260506130942 17 148 1.6 6.4 0.00 0.00 0.00 76 1006.7
20260506130842 17 142 1.6 4.8 0.00 0.00 0.00 77 1006.7
20260506130741 17 179 1.6 3.2 0.00 0.00 0.00 77 1006.8
20260506130721 17 148 1.6 3.2 0.00 0.00 0.00 76 1006.7
20260506130640 17 136 1.6 3.2 0.00 0.00 0.00 76 1006.7
20260506130539 17 69 1.6 8.0 0.00 0.00 0.00 77 1006.7
20260506130438 17 150 1.6 8.0 0.00 0.00 0.00 77 1006.7
20260506130358 17 139 1.6 8.0 0.00 0.00 0.00 77 1006.7
20260506130348 17 154 1.6 8.0 0.00 0.00 0.00 77 1006.7
20260506130220 17 136 1.6 8.0 0.00 0.00 0.00 77 1006.7
20260506130131 17 169 1.6 8.0 0.00 0.00 0.00 77 1006.7
20260506130032 17 169 1.6 8.0 0.00 0.00 0.00 77 1006.7
20260506130021 17 188 1.6 8.0 0.00 0.00 0.00 77 1006.7
20260506130013 17 148 1.6 8.0 0.00 0.00 0.00 77 1006.7
20260506130002 17 169 1.6 8.0 0.00 0.00 0.00 77 1006.7
20260506125721 17 148 1.6 8.0 0.00 0.00 0.00 77 1006.7
20260506125622 17 157 1.6 8.0 0.00 0.00 0.00 77 1006.7
20260506125550 17 145 1.6 8.0 0.00 0.00 0.00 77 1006.7
20260506125540 17 150 1.6 8.0 0.00 0.00 0.00 77 1006.6
20260506125354 17 152 3.2 11.3 0.00 0.00 0.00 77 1006.7
20260506125344 17 143 1.6 11.3 0.00 0.00 0.00 77 1006.7
20260506125329 17 150 3.2 11.3 0.00 0.00 0.00 77 1006.7
20260506125119 17 181 3.2 11.3 0.00 0.00 0.00 77 1006.7
20260506125017 17 270 3.2 11.3 0.00 0.00 0.00 77 1006.7
20260506124918 17 284 3.2 11.3 0.00 0.00 0.00 77 1006.7
20260506124816 17 193 3.2 11.3 0.00 0.00 0.00 77 1006.7
20260506124722 17 221 3.2 11.3 0.00 0.00 0.00 77 1006.7
20260506124713 17 220 3.2 11.3 0.00 0.00 0.00 77 1006.7
20260506124613 17 195 3.2 11.3 0.00 0.00 0.00 77 1006.7
20260506124511 17 160 3.2 11.3 0.00 0.00 0.00 77 1006.7
20260506124413 17 143 3.2 11.3 0.00 0.00 0.00 77 1006.7
20260506124331 17 156 3.2 8.0 0.00 0.00 0.00 77 1006.7
20260506124317 17 186 1.6 8.0 0.00 0.00 0.00 77 1006.7
20260506124130 17 191 1.6 8.0 0.00 0.00 0.00 77 1006.7
20260506124122 17 232 1.6 8.0 0.00 0.00 0.00 77 1006.7
20260506123906 17 142 1.6 8.0 0.00 0.00 0.00 78 1006.7
20260506123804 17 235 1.6 8.0 0.00 0.00 0.00 78 1006.7
20260506123717 17 212 1.6 8.0 0.00 0.00 0.00 78 1006.7
20260506123659 17 226 1.6 8.0 0.00 0.00 0.00 78 1006.7
20260506123559 17 278 1.6 8.0 0.00 0.00 0.00 78 1006.8
20260506123500 17 167 1.6 8.0 0.00 0.00 0.00 78 1006.7
20260506123434 17 143 1.6 8.0 0.00 0.00 0.00 78 1006.7
20260506123313 16 194 1.6 8.0 0.00 0.00 0.00 79 1006.8
20260506123306 17 195 1.6 8.0 0.00 0.00 0.00 78 1006.7
20260506123251 17 86 1.6 8.0 0.00 0.00 0.00 78 1006.7
20260506123243 17 87 1.6 8.0 0.00 0.00 0.00 78 1006.7
20260506123111 16 274 1.6 8.0 0.00 0.00 0.00 78 1006.7
20260506122841 16 257 1.6 4.8 0.00 0.00 0.00 79 1006.7
20260506122827 16 236 1.6 4.8 0.00 0.00 0.00 79 1006.7
20260506122816 16 136 1.6 4.8 0.00 0.00 0.00 79 1006.7
20260506122447 16 151 1.6 6.4 0.00 0.00 0.00 79 1006.7
20260506122348 16 223 1.6 8.0 0.00 0.00 0.00 79 1006.6
20260506122247 16 200 1.6 8.0 0.00 0.00 0.00 79 1006.6
20260506122215 16 147 1.6 8.0 0.00 0.00 0.00 79 1006.6
20260506122209 16 156 1.6 8.0 0.00 0.00 0.00 79 1006.5
20260506122158 16 145 1.6 8.0 0.00 0.00 0.00 79 1006.6
20260506122010 16 170 1.6 8.0 0.00 0.00 0.00 79 1006.6
20260506121958 16 153 1.6 8.0 0.00 0.00 0.00 79 1006.6
20260506121741 16 146 1.6 8.0 0.00 0.00 0.00 79 1006.6
20260506121714 16 145 1.6 8.0 0.00 0.00 0.00 79 1006.6
20260506121640 16 134 1.6 8.0 0.00 0.00 0.00 79 1006.6
20260506121557 16 172 1.6 8.0 0.00 0.00 0.00 79 1006.6
20260506121540 16 131 1.6 8.0 0.00 0.00 0.00 79 1006.6
20260506121342 16 142 1.6 8.0 0.00 0.00 0.00 79 1006.6
20260506121326 16 169 1.6 8.0 0.00 0.00 0.00 79 1006.7
20260506121135 16 153 1.6 8.0 0.00 0.00 0.00 79 1006.7
20260506121035 16 166 1.6 8.0 0.00 0.00 0.00 79 1006.7
20260506120936 16 291 1.6 8.0 0.00 0.00 0.00 79 1006.8
20260506120835 16 210 1.6 8.0 0.00 0.00 0.00 79 1006.8
20260506120735 16 270 1.6 8.0 0.00 0.00 0.00 79 1006.8
20260506120714 16 291 1.6 8.0 0.00 0.00 0.00 79 1006.9
20260506120702 16 273 1.6 8.0 0.00 0.00 0.00 79 1006.9
20260506120652 16 248 1.6 8.0 0.00 0.00 0.00 79 1006.9
20260506120524 16 136 1.6 8.0 0.00 0.00 0.00 79 1006.9
20260506120520 16 282 1.6 8.0 0.00 0.00 0.00 80 1006.9
20260506120508 16 277 1.6 8.0 0.00 0.00 0.00 79 1007.0
20260506120214 16 136 1.6 8.0 0.00 0.00 0.00 80 1006.9
20260506120135 16 153 1.6 8.0 0.00 0.00 0.00 80 1006.9
20260506120033 16 249 1.6 8.0 0.00 0.00 0.00 80 1006.9
20260506115933 16 217 1.6 8.0 0.00 0.00 0.00 80 1006.9
20260506115833 16 151 1.6 8.0 0.00 0.00 0.00 79 1006.8
20260506115733 16 256 1.6 8.0 0.00 0.00 0.00 80 1006.9
20260506115715 16 291 1.6 8.0 0.00 0.00 0.00 80 1006.9
20260506115634 16 159 1.6 8.0 0.00 0.00 0.00 80 1006.9
20260506115534 16 188 1.6 8.0 0.00 0.00 0.00 80 1006.9
20260506115427 16 117 1.6 8.0 0.00 0.00 0.00 80 1006.9
20260506115327 16 159 1.6 9.7 0.00 0.00 0.00 80 1006.9
20260506115227 16 264 1.6 9.7 0.00 0.00 0.00 80 1006.9
20260506115208 16 197 1.6 9.7 0.00 0.00 0.00 80 1006.9
20260506115128 16 139 1.6 9.7 0.00 0.00 0.00 80 1006.9
20260506115108 16 157 1.6 9.7 0.00 0.00 0.00 80 1006.9
20260506114945 16 288 1.6 9.7 0.00 0.00 0.00 80 1006.9
20260506114728 16 163 1.6 9.7 0.00 0.00 0.00 80 1006.9
20260506114702 16 162 1.6 9.7 0.00 0.00 0.00 80 1006.9
20260506114625 16 131 1.6 9.7 0.00 0.00 0.00 80 1007.0
20260506114603 15 142 1.6 9.7 0.00 0.00 0.00 81 1007.0
20260506114438 15 195 1.6 9.7 0.00 0.00 0.00 81 1007.0
20260506114223 15 143 1.6 8.0 0.00 0.00 0.00 81 1007.2
20260506114157 15 148 1.6 8.0 0.00 0.00 0.00 81 1007.2
20260506114121 15 131 1.6 8.0 0.00 0.00 0.00 80 1007.2
20260506114022 15 193 1.6 8.0 0.00 0.00 0.00 80 1007.2
20260506113922 15 134 1.6 8.0 0.00 0.00 0.00 80 1007.2
20260506113849 15 145 1.6 8.0 0.00 0.00 0.00 80 1007.1
20260506113839 15 134 1.6 8.0 0.00 0.00 0.00 80 1007.1
20260506113649 15 101 1.6 8.0 0.00 0.00 0.00 80 1007.1
20260506113623 15 245 3.2 8.0 0.00 0.00 0.00 80 1007.1
20260506113522 15 103 3.2 8.0 0.00 0.00 0.00 80 1007.1
20260506113422 15 150 1.6 8.0 0.00 0.00 0.00 80 1007.1
20260506113320 15 87 3.2 8.0 0.00 0.00 0.00 80 1007.2
20260506113219 15 222 1.6 8.0 0.00 0.00 0.00 80 1007.2
20260506113143 15 163 1.6 8.0 0.00 0.00 0.00 80 1007.2
20260506113119 15 148 1.6 8.0 0.00 0.00 0.00 80 1007.2
20260506113018 15 179 1.6 8.0 0.00 0.00 0.00 80 1007.2
20260506112920 15 79 1.6 8.0 0.00 0.00 0.00 80 1007.2
20260506112818 15 181 1.6 8.0 0.00 0.00 0.00 81 1007.2
20260506112718 15 193 1.6 8.0 0.00 0.00 0.00 81 1007.1
20260506112635 15 153 1.6 8.0 0.00 0.00 0.00 81 1007.1
20260506112616 15 165 1.6 8.0 0.00 0.00 0.00 81 1007.1
20260506112514 15 159 1.6 8.0 0.00 0.00 0.00 81 1007.1
20260506112415 15 117 1.6 6.4 0.00 0.00 0.00 81 1007.1
20260506112312 15 231 1.6 6.4 0.00 0.00 0.00 81 1007.2
20260506112213 15 150 1.6 6.4 0.00 0.00 0.00 81 1007.2
20260506112145 15 132 1.6 6.4 0.00 0.00 0.00 81 1007.3
20260506112127 15 150 1.6 6.4 0.00 0.00 0.00 81 1007.2
20260506111910 15 117 3.2 6.4 0.00 0.00 0.00 81 1007.2
20260506111842 15 163 3.2 8.0 0.00 0.00 0.00 81 1007.2
20260506111808 15 129 3.2 8.0 0.00 0.00 0.00 81 1007.3
20260506111737 15 134 3.2 8.0 0.00 0.00 0.00 81 1007.3
20260506111606 15 217 3.2 8.0 0.00 0.00 0.00 81 1007.2
20260506111505 15 270 3.2 8.0 0.00 0.00 0.00 81 1007.3
20260506111406 15 142 1.6 8.0 0.00 0.00 0.00 81 1007.2
20260506111350 15 188 1.6 8.0 0.00 0.00 0.00 81 1007.2
20260506111231 15 150 1.6 6.4 0.00 0.00 0.00 81 1007.2
20260506111221 15 145 1.6 8.0 0.00 0.00 0.00 81 1007.2
20260506111209 15 165 1.6 8.0 0.00 0.00 0.00 81 1007.2
20260506111159 15 156 1.6 8.0 0.00 0.00 0.00 81 1007.2
20260506111040 15 157 3.2 8.0 0.00 0.00 0.00 81 1007.2
20260506111023 15 139 1.6 8.0 0.00 0.00 0.00 81 1007.2
20260506110631 15 181 1.6 6.4 0.00 0.00 0.00 81 1007.1
20260506110623 15 190 1.6 6.4 0.00 0.00 0.00 81 1007.1
20260506110250 15 155 1.6 6.4 0.00 0.00 0.00 82 1007.1
20260506110143 15 159 1.6 8.0 0.00 0.00 0.00 81 1007.1
20260506110105 15 201 1.6 8.0 0.00 0.00 0.00 81 1007.1
20260506110043 15 145 1.6 8.0 0.00 0.00 0.00 81 1007.1
20260506105944 15 201 1.6 8.0 0.00 0.00 0.00 82 1007.0
20260506105843 15 125 1.6 8.0 0.00 0.00 0.00 82 1007.1
20260506105744 15 302 1.6 8.0 0.00 0.00 0.00 82 1007.1
20260506105637 15 176 1.6 8.0 0.00 0.00 0.00 82 1007.2
20260506105559 15 137 1.6 8.0 0.00 0.00 0.00 82 1007.2
20260506105537 15 145 1.6 8.0 0.00 0.00 0.00 82 1007.2
20260506105439 15 172 1.6 8.0 0.00 0.00 0.00 82 1007.2
20260506105337 15 257 1.6 8.0 0.00 0.00 0.00 82 1007.2
20260506105238 15 169 1.6 8.0 0.00 0.00 0.00 82 1007.2
20260506105134 15 188 1.6 8.0 0.00 0.00 0.00 82 1007.1
20260506105120 15 209 1.6 8.0 0.00 0.00 0.00 82 1007.2
20260506105112 15 210 1.6 8.0 0.00 0.00 0.00 82 1007.2
20260506104948 15 280 1.6 8.0 0.00 0.00 0.00 82 1007.2
20260506104732 15 186 1.6 8.0 0.00 0.00 0.00 82 1007.1
20260506104628 15 219 0.0 8.0 0.00 0.00 0.00 82 1007.2
20260506104604 15 215 0.0 4.8 0.00 0.00 0.00 82 1007.2
20260506104555 15 245 0.0 6.4 0.00 0.00 0.00 82 1007.2
20260506104545 15 243 0.0 6.4 0.00 0.00 0.00 82 1007.2
20260506104329 15 194 0.0 4.8 0.00 0.00 0.00 82 1007.1
20260506104227 15 181 0.0 4.8 0.00 0.00 0.00 82 1007.1
20260506104128 15 201 0.0 4.8 0.00 0.00 0.00 82 1007.2
20260506104042 15 200 0.0 4.8 0.00 0.00 0.00 82 1007.2
20260506104027 15 156 0.0 4.8 0.00 0.00 0.00 82 1007.2
20260506103925 15 157 0.0 4.8 0.00 0.00 0.00 82 1007.2
20260506103825 15 149 0.0 4.8 0.00 0.00 0.00 82 1007.2
20260506103725 15 138 0.0 4.8 0.00 0.00 0.00 82 1007.3
20260506103626 15 170 0.0 3.2 0.00 0.00 0.00 82 1007.3
20260506103536 15 182 0.0 3.2 0.00 0.00 0.00 82 1007.3
20260506103527 15 184 0.0 3.2 0.00 0.00 0.00 82 1007.3
20260506103451 15 172 0.0 3.2 0.00 0.00 0.00 82 1007.2
20260506103441 15 139 0.0 3.2 0.00 0.00 0.00 82 1007.3
20260506103225 15 162 1.6 3.2 0.00 0.00 0.00 82 1007.2
20260506103124 15 189 1.6 6.4 0.00 0.00 0.00 82 1007.2
20260506103024 15 145 1.6 6.4 0.00 0.00 0.00 82 1007.2
20260506102954 15 297 1.6 6.4 0.00 0.00 0.00 82 1007.2
20260506102944 15 142 1.6 6.4 0.00 0.00 0.00 82 1007.2
20260506102929 15 294 1.6 6.4 0.00 0.00 0.00 82 1007.2
20260506102646 15 191 1.6 6.4 0.00 0.00 0.00 82 1007.1
20260506102631 15 252 1.6 6.4 0.00 0.00 0.00 82 1007.0
20260506102444 15 128 1.6 6.4 0.00 0.00 0.00 82 1007.0
20260506102434 15 217 1.6 6.4 0.00 0.00 0.00 82 1007.1
20260506102217 15 230 1.6 6.4 0.00 0.00 0.00 82 1007.0
20260506102118 15 221 1.6 6.4 0.00 0.00 0.00 82 1007.0
20260506102017 15 269 1.6 6.4 0.00 0.00 0.00 82 1006.9
20260506101912 15 194 1.6 6.4 0.00 0.00 0.00 82 1007.0
20260506101813 15 233 1.6 6.4 0.00 0.00 0.00 82 1007.0
20260506101711 15 245 1.6 6.4 0.00 0.00 0.00 82 1007.0
20260506101611 15 243 1.6 6.4 0.00 0.00 0.00 82 1007.0
20260506101539 15 188 0.0 6.4 0.00 0.00 0.00 82 1007.0
20260506101532 15 172 1.6 6.4 0.00 0.00 0.00 82 1007.0
20260506101524 15 165 0.0 6.4 0.00 0.00 0.00 82 1007.0
20260506101304 14 198 0.0 6.4 0.00 0.00 0.00 82 1007.0
20260506101205 14 263 0.0 6.4 0.00 0.00 0.00 82 1007.0
20260506101105 14 188 0.0 6.4 0.00 0.00 0.00 82 1006.9
20260506101029 14 198 0.0 6.4 0.00 0.00 0.00 82 1006.9
20260506101006 14 219 0.0 6.4 0.00 0.00 0.00 82 1006.9
20260506100931 14 142 0.0 6.4 0.00 0.00 0.00 82 1007.0
20260506100920 14 184 0.0 6.4 0.00 0.00 0.00 82 1006.9
20260506100705 14 142 0.0 6.4 0.00 0.00 0.00 82 1007.0
20260506100602 14 174 0.0 6.4 0.00 0.00 0.00 82 1007.0
20260506100527 14 174 0.0 6.4 0.00 0.00 0.00 82 1007.1
20260506100459 14 184 0.0 6.4 0.00 0.00 0.00 82 1007.1
20260506100353 14 260 0.0 6.4 0.00 0.00 0.00 82 1007.1
20260506100254 14 171 1.6 6.4 0.00 0.00 0.00 82 1007.1
20260506100153 14 271 0.0 6.4 0.00 0.00 0.00 82 1007.0
20260506100054 14 195 0.0 6.4 0.00 0.00 0.00 82 1007.0
20260506100026 14 194 0.0 6.4 0.00 0.00 0.00 82 1007.0
20260506095952 14 165 1.6 6.4 0.00 0.00 0.00 82 1007.0
20260506095846 14 163 1.6 6.4 0.00 0.00 0.00 82 1006.9
20260506095823 14 145 1.6 6.4 0.00 0.00 0.00 82 1007.0
20260506095819 14 153 1.6 6.4 0.00 0.00 0.00 82 1007.1
20260506095807 14 169 0.0 6.4 0.00 0.00 0.00 82 1006.9
20260506095752 14 212 0.0 6.4 0.00 0.00 0.00 82 1007.0
20260506095505 14 206 0.0 4.8 0.00 0.00 0.00 81 1007.1
20260506095455 14 154 1.6 6.4 0.00 0.00 0.00 81 1007.1
20260506095307 14 126 0.0 4.8 0.00 0.00 0.00 81 1007.2
20260506095256 14 257 0.0 4.8 0.00 0.00 0.00 81 1007.1
20260506095039 14 126 0.0 4.8 0.00 0.00 0.00 81 1007.1
20260506095026 14 252 0.0 4.8 0.00 0.00 0.00 81 1007.1
20260506094940 14 201 0.0 4.8 0.00 0.00 0.00 81 1007.1
20260506094858 15 215 0.0 4.8 0.00 0.00 0.00 81 1007.1
20260506094848 14 205 0.0 4.8 0.00 0.00 0.00 81 1007.1
20260506094705 15 148 0.0 4.8 0.00 0.00 0.00 81 1007.0
20260506094701 15 148 0.0 4.8 0.00 0.00 0.00 81 1007.0
20260506094651 15 219 0.0 4.8 0.00 0.00 0.00 81 1007.0
20260506094638 15 148 0.0 4.8 0.00 0.00 0.00 81 1007.1
20260506094631 15 148 0.0 4.8 0.00 0.00 0.00 81 1007.0
20260506094228 15 145 0.0 4.8 0.00 0.00 0.00 81 1007.0
20260506094148 15 169 0.0 4.8 0.00 0.00 0.00 81 1007.0
20260506094132 15 156 0.0 4.8 0.00 0.00 0.00 81 1007.0
20260506093950 15 153 0.0 4.8 0.00 0.00 0.00 81 1007.0
20260506093942 15 195 0.0 4.8 0.00 0.00 0.00 81 1007.0
20260506093721 15 154 0.0 4.8 0.00 0.00 0.00 81 1006.9
20260506093621 15 145 0.0 4.8 0.00 0.00 0.00 81 1007.0
20260506093528 15 174 0.0 6.4 0.00 0.00 0.00 81 1006.9
20260506093522 15 176 0.0 6.4 0.00 0.00 0.00 81 1006.9
20260506093422 15 127 0.0 6.4 0.00 0.00 0.00 81 1007.0
20260506093319 15 150 1.6 6.4 0.00 0.00 0.00 81 1007.0
20260506093217 15 137 1.6 6.4 0.00 0.00 0.00 81 1007.0
20260506093138 15 155 1.6 6.4 0.00 0.00 0.00 81 1007.0
20260506093124 15 174 1.6 6.4 0.00 0.00 0.00 81 1007.0
20260506092915 15 156 1.6 6.4 0.00 0.00 0.00 81 1006.9
20260506092809 15 156 1.6 6.4 0.00 0.00 0.00 81 1006.9
20260506092752 14 134 1.6 6.4 0.00 0.00 0.00 81 1006.8
20260506092710 15 179 1.6 6.4 0.00 0.00 0.00 81 1006.9
20260506092640 14 187 1.6 6.4 0.00 0.00 0.00 81 1006.8
20260506092509 14 111 1.6 6.4 0.00 0.00 0.00 81 1006.8
20260506092408 14 153 1.6 6.4 0.00 0.00 0.00 81 1006.8
20260506092309 14 173 1.6 6.4 0.00 0.00 0.00 81 1006.8
20260506092206 14 159 1.6 4.8 0.00 0.00 0.00 81 1006.8
20260506092107 14 153 0.0 4.8 0.00 0.00 0.00 81 1006.8
20260506092024 14 159 0.0 4.8 0.00 0.00 0.00 81 1006.9
20260506092003 14 191 0.0 4.8 0.00 0.00 0.00 81 1006.9
20260506091902 14 156 0.0 4.8 0.00 0.00 0.00 81 1006.9
20260506091801 14 158 0.0 4.8 0.00 0.00 0.00 81 1007.0
20260506091700 14 153 0.0 3.2 0.00 0.00 0.00 81 1007.0
20260506091600 14 153 0.0 3.2 0.00 0.00 0.00 81 1007.0
20260506091525 14 174 0.0 3.2 0.00 0.00 0.00 81 1007.1
20260506091456 14 274 0.0 3.2 0.00 0.00 0.00 81 1007.1
20260506091356 14 153 0.0 3.2 0.00 0.00 0.00 81 1007.0
20260506091255 14 153 0.0 3.2 0.00 0.00 0.00 81 1007.0
20260506091154 14 156 0.0 3.2 0.00 0.00 0.00 81 1007.0
20260506091055 14 186 0.0 3.2 0.00 0.00 0.00 81 1007.0
20260506091022 14 186 0.0 3.2 0.00 0.00 0.00 81 1007.0
20260506090952 14 187 0.0 3.2 0.00 0.00 0.00 81 1007.0
20260506090850 14 189 0.0 3.2 0.00 0.00 0.00 81 1006.9
20260506090745 14 212 0.0 3.2 0.00 0.00 0.00 81 1006.9
20260506090645 14 150 0.0 3.2 0.00 0.00 0.00 81 1006.8
20260506090539 14 193 0.0 3.2 0.00 0.00 0.00 81 1006.8
20260506090533 14 226 0.0 3.2 0.00 0.00 0.00 81 1006.8
20260506090526 14 165 0.0 3.2 0.00 0.00 0.00 81 1006.8
20260506090514 14 165 0.0 3.2 0.00 0.00 0.00 81 1006.8
20260506090139 14 188 0.0 3.2 0.00 0.00 0.00 81 1006.8
20260506090040 14 167 0.0 3.2 0.00 0.00 0.00 81 1006.8
20260506090016 14 156 0.0 3.2 0.00 0.00 0.00 81 1006.8
20260506085938 14 155 0.0 3.2 0.00 0.00 0.00 81 1006.8
20260506085908 14 129 0.0 3.2 0.00 0.00 0.00 81 1006.9
20260506085745 14 174 1.6 3.2 0.00 0.00 0.00 81 1006.9
20260506085732 14 145 1.6 3.2 0.00 0.00 0.00 81 1006.9
20260506085607 14 197 1.6 4.8 0.00 0.00 0.00 81 1006.9
20260506085447 14 198 1.6 4.8 0.00 0.00 0.00 80 1006.9
20260506085229 14 193 1.6 4.8 0.00 0.00 0.00 80 1006.9
20260506085128 14 193 1.6 4.8 0.00 0.00 0.00 80 1006.9
20260506085027 14 150 1.6 4.8 0.00 0.00 0.00 80 1006.9
20260506085004 14 148 1.6 4.8 0.00 0.00 0.00 81 1006.9
20260506084949 14 184 0.0 4.8 0.00 0.00 0.00 81 1006.9
20260506084941 14 194 1.6 4.8 0.00 0.00 0.00 81 1006.9
20260506084731 14 165 0.0 4.8 0.00 0.00 0.00 81 1007.0
20260506084723 14 127 0.0 4.8 0.00 0.00 0.00 81 1007.0
20260506084626 14 228 0.0 4.8 0.00 0.00 0.00 81 1007.0
20260506084610 14 201 0.0 4.8 0.00 0.00 0.00 81 1007.0
20260506084419 14 153 0.0 4.8 0.00 0.00 0.00 81 1007.0
20260506084359 14 162 0.0 4.8 0.00 0.00 0.00 81 1007.0
20260506084241 14 223 0.0 3.2 0.00 0.00 0.00 81 1007.0
20260506084231 14 215 0.0 4.8 0.00 0.00 0.00 81 1007.1
20260506084218 14 214 0.0 3.2 0.00 0.00 0.00 81 1007.0
20260506083910 14 263 0.0 3.2 0.00 0.00 0.00 81 1007.0
20260506083810 14 222 0.0 3.2 0.00 0.00 0.00 81 1007.0
20260506083712 13 191 0.0 1.6 0.00 0.00 0.00 80 1007.0
20260506083703 13 222 0.0 3.2 0.00 0.00 0.00 81 1007.0
20260506083612 13 180 0.0 1.6 0.00 0.00 0.00 81 1007.0
20260506083556 13 243 0.0 1.6 0.00 0.00 0.00 80 1007.0
20260506083403 13 187 0.0 3.2 0.00 0.00 0.00 80 1007.0
20260506083320 14 200 0.0 3.2 0.00 0.00 0.00 80 1007.0
20260506083156 14 148 0.0 3.2 0.00 0.00 0.00 80 1007.0
20260506083105 14 148 0.0 3.2 0.00 0.00 0.00 80 1007.0
20260506083048 14 145 0.0 3.2 0.00 0.00 0.00 80 1007.0
20260506082858 14 148 0.0 3.2 0.00 0.00 0.00 80 1007.0
20260506082758 13 145 0.0 3.2 0.00 0.00 0.00 81 1007.0
20260506082658 13 159 0.0 3.2 0.00 0.00 0.00 81 1007.0
20260506082555 13 147 0.0 3.2 0.00 0.00 0.00 81 1007.0
20260506082456 13 212 0.0 3.2 0.00 0.00 0.00 81 1007.0
20260506082433 13 181 0.0 3.2 0.00 0.00 0.00 81 1007.0
20260506082353 13 162 0.0 3.2 0.00 0.00 0.00 81 1007.0
20260506082252 13 198 0.0 3.2 0.00 0.00 0.00 81 1007.0
20260506082149 13 210 0.0 3.2 0.00 0.00 0.00 81 1007.0
20260506082049 13 156 0.0 3.2 0.00 0.00 0.00 81 1007.0
20260506081947 13 178 0.0 1.6 0.00 0.00 0.00 81 1007.0
20260506081925 13 177 0.0 1.6 0.00 0.00 0.00 81 1007.0
20260506081849 13 178 0.0 1.6 0.00 0.00 0.00 81 1007.0
20260506081810 13 136 0.0 1.6 0.00 0.00 0.00 80 1007.0
20260506081802 13 215 0.0 0.0 0.00 0.00 0.00 80 1007.0
20260506081758 13 215 0.0 0.0 0.00 0.00 0.00 80 1007.0
20260506081750 13 139 0.0 1.6 0.00 0.00 0.00 81 1007.0
20260506081733 13 138 0.0 1.6 0.00 0.00 0.00 81 1007.0
20260506081452 13 215 0.0 0.0 0.00 0.00 0.00 80 1007.0
20260506081240 13 215 0.0 0.0 0.00 0.00 0.00 80 1007.0
20260506081135 13 215 0.0 0.0 0.00 0.00 0.00 80 1006.9
20260506081037 13 215 0.0 0.0 0.00 0.00 0.00 80 1006.9
20260506081011 13 215 0.0 0.0 0.00 0.00 0.00 80 1007.0
20260506080850 13 215 0.0 0.0 0.00 0.00 0.00 80 1007.0
20260506080718 13 215 0.0 0.0 0.00 0.00 0.00 80 1007.0
20260506080711 13 215 0.0 0.0 0.00 0.00 0.00 80 1007.0
20260506080700 13 215 0.0 0.0 0.00 0.00 0.00 80 1006.9
20260506080407 13 215 0.0 0.0 0.00 0.00 0.00 80 1007.0
20260506080328 13 215 0.0 0.0 0.00 0.00 0.00 80 1007.0
20260506080228 13 215 0.0 0.0 0.00 0.00 0.00 80 1006.9
20260506080124 13 216 0.0 0.0 0.00 0.00 0.00 79 1007.0
20260506073518 14 215 0.0 1.6 0.00 0.00 0.00 77 1006.9
20260506073508 14 215 0.0 1.6 0.00 0.00 0.00 77 1006.9
20260506073332 14 215 0.0 1.6 0.00 0.00 0.00 77 1006.9
20260506073251 14 215 0.0 1.6 0.00 0.00 0.00 77 1006.9
20260506073152 14 215 0.0 1.6 0.00 0.00 0.00 77 1006.9
20260506073142 14 215 0.0 0.0 0.00 0.00 0.00 77 1006.9
20260506073058 14 214 0.0 1.6 0.00 0.00 0.00 77 1006.9
20260506073041 14 215 0.0 0.0 0.00 0.00 0.00 77 1006.9
20260506073023 14 215 0.0 0.0 0.00 0.00 0.00 77 1006.9
20260506072756 14 215 0.0 1.6 0.00 0.00 0.00 77 1006.9
20260506072739 14 217 0.0 1.6 0.00 0.00 0.00 77 1006.9
20260506072616 14 217 0.0 1.6 0.00 0.00 0.00 77 1006.8
20260506072320 14 217 0.0 1.6 0.00 0.00 0.00 77 1006.8
20260506072241 14 217 0.0 1.6 0.00 0.00 0.00 77 1006.8
20260506072140 14 217 0.0 1.6 0.00 0.00 0.00 77 1006.8
20260506072035 14 217 0.0 1.6 0.00 0.00 0.00 77 1006.8
20260506071933 14 238 0.0 1.6 0.00 0.00 0.00 77 1006.8
20260506071833 14 238 0.0 1.6 0.00 0.00 0.00 77 1006.7
20260506071814 14 238 0.0 1.6 0.00 0.00 0.00 77 1006.8
20260506071759 14 238 0.0 1.6 0.00 0.00 0.00 77 1006.7
20260506071749 14 238 0.0 1.6 0.00 0.00 0.00 77 1006.8
20260506071529 14 238 0.0 1.6 0.00 0.00 0.00 77 1006.6
20260506071428 14 238 0.0 1.6 0.00 0.00 0.00 77 1006.7
20260506071308 14 238 0.0 1.6 0.00 0.00 0.00 77 1006.7
20260506071227 14 238 0.0 1.6 0.00 0.00 0.00 76 1006.7
20260506071128 14 237 0.0 0.0 0.00 0.00 0.00 76 1006.7
20260506071049 14 238 0.0 0.0 0.00 0.00 0.00 76 1006.7
20260506071038 14 238 0.0 0.0 0.00 0.00 0.00 76 1006.7